Time,TemperatureF,DewpointF,PressureIn,WindDirection,WindDirectionDegrees,WindSpeedMPH,WindSpeedGustMPH,Humidity,HourlyPrecipIn,Conditions,Clouds,dailyrainin,SoftwareType,DateUTC
2013-03-06 00:02:00,51.3,17.2,29.78,East,90,0.0,0.0,26,0.00,,,0.00,WUHU216HW,2013-03-06 07:02:00,
2013-03-06 00:03:00,51.3,17.2,29.78,East,90,0.0,0.0,26,0.00,,,0.00,WUHU216HW,2013-03-06 07:03:00,
2013-03-06 00:07:00,51.1,18.0,29.79,WSW,248,0.2,0.2,27,0.00,,,0.00,WUHU216HW,2013-03-06 07:07:00,
2013-03-06 00:08:00,51.1,18.0,29.79,WSW,248,0.7,0.7,27,0.00,,,0.00,WUHU216HW,2013-03-06 07:08:00,
2013-03-06 00:12:00,51.1,18.0,29.78,West,270,0.9,1.6,27,0.00,,,0.00,WUHU216HW,2013-03-06 07:12:00,
2013-03-06 00:13:00,51.1,18.0,29.78,West,270,0.9,1.6,27,0.00,,,0.00,WUHU216HW,2013-03-06 07:13:00,
2013-03-06 00:17:00,50.9,17.8,29.78,West,270,0.4,1.6,27,0.00,,,0.00,WUHU216HW,2013-03-06 07:17:00,
2013-03-06 00:18:00,50.9,17.8,29.78,West,270,0.4,1.6,27,0.00,,,0.00,WUHU216HW,2013-03-06 07:18:00,
2013-03-06 00:22:00,50.8,17.6,29.78,WNW,293,0.4,0.9,27,0.00,,,0.00,WUHU216HW,2013-03-06 07:22:00,
2013-03-06 00:23:00,50.8,17.6,29.78,WNW,293,0.4,0.9,27,0.00,,,0.00,WUHU216HW,2013-03-06 07:23:00,
2013-03-06 00:28:00,50.8,17.6,29.78,WNW,293,0.4,0.9,27,0.00,,,0.00,WUHU216HW,2013-03-06 07:28:00,
2013-03-06 00:33:00,50.6,17.6,29.78,WNW,293,1.1,1.1,27,0.00,,,0.00,WUHU216HW,2013-03-06 07:33:00,
2013-03-06 00:38:00,50.4,17.4,29.78,NW,315,0.0,1.1,27,0.00,,,0.00,WUHU216HW,2013-03-06 07:38:00,
2013-03-06 00:43:00,50.2,17.2,29.78,WNW,293,2.0,2.0,27,0.00,,,0.00,WUHU216HW,2013-03-06 07:43:00,
2013-03-06 00:48:00,50.0,17.0,29.78,WNW,293,1.8,2.0,27,0.00,,,0.00,WUHU216HW,2013-03-06 07:48:00,
2013-03-06 00:49:00,50.0,17.0,29.78,NW,315,0.4,2.0,27,0.00,,,0.00,WUHU216HW,2013-03-06 07:49:00,
2013-03-06 00:53:00,49.9,16.9,29.78,NW,315,0.7,1.8,27,0.00,,,0.00,WUHU216HW,2013-03-06 07:53:00,
2013-03-06 00:54:00,49.9,16.9,29.78,WNW,293,1.8,1.8,27,0.00,,,0.00,WUHU216HW,2013-03-06 07:54:00,
2013-03-06 00:58:00,49.9,16.9,29.78,NW,315,1.3,2.2,27,0.00,,,0.00,WUHU216HW,2013-03-06 07:58:00,
2013-03-06 00:59:00,49.7,17.6,29.78,NW,315,1.8,2.2,28,0.00,,,0.00,WUHU216HW,2013-03-06 07:59:00,
2013-03-06 01:00:00,49.7,17.6,29.78,NW,315,1.1,2.2,28,0.00,,,0.00,WUHU216HW,2013-03-06 08:00:00,
2013-03-06 01:03:00,49.7,17.6,29.78,West,270,1.3,2.2,28,0.00,,,0.00,WUHU216HW,2013-03-06 08:03:00,
2013-03-06 01:04:00,49.7,17.6,29.78,NW,315,1.3,2.2,28,0.00,,,0.00,WUHU216HW,2013-03-06 08:04:00,
2013-03-06 01:05:00,49.7,17.6,29.78,West,270,1.1,2.2,28,0.00,,,0.00,WUHU216HW,2013-03-06 08:05:00,
2013-03-06 01:08:00,49.7,17.6,29.78,WNW,293,2.5,2.5,28,0.00,,,0.00,WUHU216HW,2013-03-06 08:08:00,
2013-03-06 01:09:00,49.7,17.6,29.78,WNW,293,1.8,2.5,28,0.00,,,0.00,WUHU216HW,2013-03-06 08:09:00,
2013-03-06 01:10:00,49.7,17.6,29.78,West,270,1.8,2.5,28,0.00,,,0.00,WUHU216HW,2013-03-06 08:10:00,
2013-03-06 01:13:00,49.5,17.6,29.78,WNW,293,1.8,2.5,28,0.00,,,0.00,WUHU216HW,2013-03-06 08:13:00,
2013-03-06 01:14:00,49.5,17.6,29.78,WNW,293,1.3,2.5,28,0.00,,,0.00,WUHU216HW,2013-03-06 08:14:00,
2013-03-06 01:15:00,49.5,17.6,29.78,WNW,293,1.3,2.5,28,0.00,,,0.00,WUHU216HW,2013-03-06 08:15:00,
2013-03-06 01:18:00,49.5,17.6,29.78,WNW,293,0.0,2.0,28,0.00,,,0.00,WUHU216HW,2013-03-06 08:18:00,
2013-03-06 01:19:00,49.5,17.6,29.78,WNW,293,0.0,2.0,28,0.00,,,0.00,WUHU216HW,2013-03-06 08:19:00,
2013-03-06 01:20:00,49.5,17.6,29.78,WNW,293,0.0,2.0,28,0.00,,,0.00,WUHU216HW,2013-03-06 08:20:00,
2013-03-06 01:23:00,49.5,17.6,29.77,WNW,293,0.0,1.3,28,0.00,,,0.00,WUHU216HW,2013-03-06 08:23:00,
2013-03-06 01:25:00,49.7,17.6,29.78,WNW,293,0.0,0.4,28,0.00,,,0.00,WUHU216HW,2013-03-06 08:25:00,
2013-03-06 01:28:00,49.7,17.6,29.77,WNW,293,0.4,0.4,28,0.00,,,0.00,WUHU216HW,2013-03-06 08:28:00,
2013-03-06 01:30:00,49.7,17.6,29.77,WNW,293,0.0,0.4,28,0.00,,,0.00,WUHU216HW,2013-03-06 08:30:00,
2013-03-06 01:34:00,49.7,17.6,29.78,NW,315,1.3,1.3,28,0.00,,,0.00,WUHU216HW,2013-03-06 08:34:00,
2013-03-06 01:35:00,49.7,17.6,29.78,NW,315,0.9,1.3,28,0.00,,,0.00,WUHU216HW,2013-03-06 08:35:00,
2013-03-06 01:39:00,49.7,17.6,29.78,North,0,0.7,1.3,28,0.00,,,0.00,WUHU216HW,2013-03-06 08:39:00,
2013-03-06 01:40:00,49.7,17.6,29.78,NNE,23,0.9,1.3,28,0.00,,,0.00,WUHU216HW,2013-03-06 08:40:00,
2013-03-06 01:44:00,49.7,17.6,29.78,North,0,0.0,2.2,28,0.00,,,0.00,WUHU216HW,2013-03-06 08:44:00,
2013-03-06 01:45:00,49.5,17.6,29.78,SE,135,0.4,2.2,28,0.00,,,0.00,WUHU216HW,2013-03-06 08:45:00,
2013-03-06 01:49:00,49.3,18.3,29.78,NNW,338,2.0,2.2,29,0.00,,,0.00,WUHU216HW,2013-03-06 08:49:00,
2013-03-06 01:50:00,49.1,17.2,29.78,NNW,338,0.4,2.2,28,0.00,,,0.00,WUHU216HW,2013-03-06 08:50:00,
2013-03-06 01:51:00,49.1,17.2,29.77,NNW,338,0.0,2.2,28,0.00,,,0.00,WUHU216HW,2013-03-06 08:51:00,
2013-03-06 01:54:00,49.0,17.1,29.77,NNW,338,0.0,2.0,28,0.00,,,0.00,WUHU216HW,2013-03-06 08:54:00,
2013-03-06 01:55:00,49.0,17.1,29.78,NNW,338,0.0,2.0,28,0.00,,,0.00,WUHU216HW,2013-03-06 08:55:00,
2013-03-06 01:56:00,49.0,18.0,29.77,NNW,338,0.4,2.0,29,0.00,,,0.00,WUHU216HW,2013-03-06 08:56:00,
2013-03-06 01:59:00,49.0,18.0,29.77,West,270,2.5,2.5,29,0.00,,,0.00,WUHU216HW,2013-03-06 08:59:00,
2013-03-06 02:00:00,49.0,18.0,29.78,West,270,2.2,2.5,29,0.00,,,0.00,WUHU216HW,2013-03-06 09:00:00,
2013-03-06 02:01:00,49.0,18.0,29.78,West,270,1.6,2.5,29,0.00,,,0.00,WUHU216HW,2013-03-06 09:01:00,
2013-03-06 02:04:00,49.0,18.0,29.78,WNW,293,1.3,2.5,29,0.00,,,0.00,WUHU216HW,2013-03-06 09:04:00,
2013-03-06 02:05:00,49.0,18.0,29.78,WNW,293,0.4,2.5,29,0.00,,,0.00,WUHU216HW,2013-03-06 09:05:00,
2013-03-06 02:06:00,49.0,18.0,29.78,WNW,293,0.4,2.5,29,0.00,,,0.00,WUHU216HW,2013-03-06 09:06:00,
2013-03-06 02:07:00,49.0,18.0,29.78,WNW,293,0.0,2.5,29,0.00,,,0.00,WUHU216HW,2013-03-06 09:07:00,
2013-03-06 02:09:00,49.0,18.0,29.78,WNW,293,0.0,2.2,29,0.00,,,0.00,WUHU216HW,2013-03-06 09:09:00,
2013-03-06 02:10:00,49.0,18.0,29.78,WNW,293,0.0,1.6,29,0.00,,,0.00,WUHU216HW,2013-03-06 09:10:00,
2013-03-06 02:11:00,49.0,18.0,29.78,WNW,293,0.0,1.3,29,0.00,,,0.00,WUHU216HW,2013-03-06 09:11:00,
2013-03-06 02:12:00,49.0,18.0,29.78,WNW,293,0.0,1.3,29,0.00,,,0.00,WUHU216HW,2013-03-06 09:12:00,
2013-03-06 02:14:00,49.0,18.0,29.78,WNW,293,0.0,0.4,29,0.00,,,0.00,WUHU216HW,2013-03-06 09:14:00,
2013-03-06 02:15:00,49.0,18.0,29.78,WNW,293,0.2,0.4,29,0.00,,,0.00,WUHU216HW,2013-03-06 09:15:00,
2013-03-06 02:16:00,49.0,18.0,29.78,NW,315,0.4,0.4,29,0.00,,,0.00,WUHU216HW,2013-03-06 09:16:00,
2013-03-06 02:17:00,49.0,18.0,29.78,NW,315,0.4,0.4,29,0.00,,,0.00,WUHU216HW,2013-03-06 09:17:00,
2013-03-06 02:19:00,48.8,17.8,29.78,NW,315,0.2,0.4,29,0.00,,,0.00,WUHU216HW,2013-03-06 09:19:00,
2013-03-06 02:20:00,48.8,17.8,29.78,NW,315,0.2,0.4,29,0.00,,,0.00,WUHU216HW,2013-03-06 09:20:00,
2013-03-06 02:21:00,48.8,17.8,29.78,NW,315,0.0,0.4,29,0.00,,,0.00,WUHU216HW,2013-03-06 09:21:00,
2013-03-06 02:22:00,48.8,17.8,29.78,NW,315,0.0,0.4,29,0.00,,,0.00,WUHU216HW,2013-03-06 09:22:00,
2013-03-06 02:24:00,48.6,17.7,29.77,NW,315,0.0,1.1,29,0.00,,,0.00,WUHU216HW,2013-03-06 09:24:00,
2013-03-06 02:25:00,48.6,17.7,29.78,NW,315,0.0,1.1,29,0.00,,,0.00,WUHU216HW,2013-03-06 09:25:00,
2013-03-06 02:27:00,48.6,17.7,29.78,ESE,113,0.4,1.1,29,0.00,,,0.00,WUHU216HW,2013-03-06 09:27:00,
2013-03-06 02:29:00,48.6,17.7,29.78,ESE,113,0.0,1.1,29,0.00,,,0.00,WUHU216HW,2013-03-06 09:29:00,
2013-03-06 02:31:00,48.6,17.7,29.78,ESE,113,0.0,1.1,29,0.00,,,0.00,WUHU216HW,2013-03-06 09:31:00,
2013-03-06 02:32:00,48.4,17.6,29.78,ESE,113,0.0,0.4,29,0.00,,,0.00,WUHU216HW,2013-03-06 09:32:00,
2013-03-06 02:34:00,48.4,17.6,29.77,ESE,113,0.0,0.4,29,0.00,,,0.00,WUHU216HW,2013-03-06 09:34:00,
2013-03-06 02:36:00,48.2,17.5,29.77,ESE,113,0.0,0.4,29,0.00,,,0.00,WUHU216HW,2013-03-06 09:36:00,
2013-03-06 02:37:00,48.2,17.5,29.77,ESE,113,0.0,0.0,29,0.00,,,0.00,WUHU216HW,2013-03-06 09:37:00,
2013-03-06 02:39:00,48.1,17.3,29.77,East,90,0.0,0.0,29,0.00,,,0.00,WUHU216HW,2013-03-06 09:39:00,
2013-03-06 02:41:00,48.1,17.3,29.77,NE,45,0.4,0.4,29,0.00,,,0.00,WUHU216HW,2013-03-06 09:41:00,
2013-03-06 02:42:00,48.1,17.3,29.77,NE,45,0.4,0.4,29,0.00,,,0.00,WUHU216HW,2013-03-06 09:42:00,
2013-03-06 02:44:00,47.9,17.1,29.77,NE,45,1.3,1.3,29,0.00,,,0.00,WUHU216HW,2013-03-06 09:44:00,
2013-03-06 02:46:00,47.9,17.1,29.77,NE,45,1.3,1.3,29,0.00,,,0.00,WUHU216HW,2013-03-06 09:46:00,
2013-03-06 02:47:00,47.7,16.9,29.77,ENE,68,0.0,1.3,29,0.00,,,0.00,WUHU216HW,2013-03-06 09:47:00,
2013-03-06 02:49:00,47.5,16.7,29.77,ENE,68,0.4,1.3,29,0.00,,,0.00,WUHU216HW,2013-03-06 09:49:00,
2013-03-06 02:51:00,47.5,16.7,29.77,ENE,68,0.0,1.3,29,0.00,,,0.00,WUHU216HW,2013-03-06 09:51:00,
2013-03-06 02:52:00,47.3,16.7,29.77,NE,45,0.0,1.3,29,0.00,,,0.00,WUHU216HW,2013-03-06 09:52:00,
2013-03-06 02:54:00,47.3,16.7,29.77,NNE,23,0.0,1.3,29,0.00,,,0.00,WUHU216HW,2013-03-06 09:54:00,
2013-03-06 02:56:00,47.2,16.5,29.76,NNE,23,0.4,0.9,29,0.00,,,0.00,WUHU216HW,2013-03-06 09:56:00,
2013-03-06 02:57:00,47.2,16.5,29.77,NNE,23,0.4,0.9,29,0.00,,,0.00,WUHU216HW,2013-03-06 09:57:00,
2013-03-06 03:00:00,47.2,16.5,29.76,NNE,23,0.0,0.9,29,0.00,,,0.00,WUHU216HW,2013-03-06 10:00:00,
2013-03-06 03:01:00,47.2,16.5,29.76,NNE,23,0.2,0.9,29,0.00,,,0.00,WUHU216HW,2013-03-06 10:01:00,
2013-03-06 03:02:00,47.2,16.5,29.77,NNE,23,0.0,0.9,29,0.00,,,0.00,WUHU216HW,2013-03-06 10:02:00,
2013-03-06 03:05:00,47.2,16.5,29.76,NNE,23,0.0,0.9,29,0.00,,,0.00,WUHU216HW,2013-03-06 10:05:00,
2013-03-06 03:06:00,47.2,16.5,29.77,NNE,23,0.0,0.4,29,0.00,,,0.00,WUHU216HW,2013-03-06 10:06:00,
2013-03-06 03:07:00,47.2,16.5,29.77,NNE,23,0.0,0.4,29,0.00,,,0.00,WUHU216HW,2013-03-06 10:07:00,
2013-03-06 03:08:00,47.2,16.5,29.77,NNE,23,0.0,0.4,29,0.00,,,0.00,WUHU216HW,2013-03-06 10:08:00,
2013-03-06 03:10:00,47.2,16.5,29.77,NNE,23,0.0,0.2,29,0.00,,,0.00,WUHU216HW,2013-03-06 10:10:00,
2013-03-06 03:12:00,47.2,16.5,29.76,NNE,23,0.0,0.0,29,0.00,,,0.00,WUHU216HW,2013-03-06 10:12:00,
2013-03-06 03:13:00,47.2,16.5,29.76,NNE,23,0.2,0.2,29,0.00,,,0.00,WUHU216HW,2013-03-06 10:13:00,
2013-03-06 03:15:00,47.2,16.5,29.76,North,0,0.2,0.4,29,0.00,,,0.00,WUHU216HW,2013-03-06 10:15:00,
2013-03-06 03:17:00,47.0,16.3,29.76,North,0,0.0,0.4,29,0.00,,,0.00,WUHU216HW,2013-03-06 10:17:00,
2013-03-06 03:18:00,47.2,16.5,29.76,North,0,0.0,0.4,29,0.00,,,0.00,WUHU216HW,2013-03-06 10:18:00,
2013-03-06 03:20:00,47.0,16.3,29.76,North,0,0.0,0.4,29,0.00,,,0.00,WUHU216HW,2013-03-06 10:20:00,
2013-03-06 03:22:00,47.0,16.3,29.76,North,0,0.0,0.4,29,0.00,,,0.00,WUHU216HW,2013-03-06 10:22:00,
2013-03-06 03:23:00,47.2,16.5,29.76,North,0,0.0,0.4,29,0.00,,,0.00,WUHU216HW,2013-03-06 10:23:00,
2013-03-06 03:25:00,47.0,16.3,29.76,North,0,0.9,0.9,29,0.00,,,0.00,WUHU216HW,2013-03-06 10:25:00,
2013-03-06 03:27:00,47.0,16.3,29.76,North,0,0.4,0.9,29,0.00,,,0.00,WUHU216HW,2013-03-06 10:27:00,
2013-03-06 03:28:00,47.0,16.3,29.76,North,0,0.0,0.9,29,0.00,,,0.00,WUHU216HW,2013-03-06 10:28:00,
2013-03-06 03:30:00,47.0,16.3,29.76,North,0,0.0,0.9,29,0.00,,,0.00,WUHU216HW,2013-03-06 10:30:00,
2013-03-06 03:32:00,47.0,16.3,29.76,North,0,0.0,0.9,29,0.00,,,0.00,WUHU216HW,2013-03-06 10:32:00,
2013-03-06 03:33:00,47.0,16.3,29.76,NW,315,0.0,0.9,29,0.00,,,0.00,WUHU216HW,2013-03-06 10:33:00,
2013-03-06 03:36:00,47.0,16.3,29.76,NW,315,0.0,0.4,29,0.00,,,0.00,WUHU216HW,2013-03-06 10:36:00,
2013-03-06 03:37:00,47.0,16.3,29.76,NW,315,0.0,0.0,29,0.00,,,0.00,WUHU216HW,2013-03-06 10:37:00,
2013-03-06 03:38:00,47.0,16.3,29.76,NW,315,0.0,0.0,29,0.00,,,0.00,WUHU216HW,2013-03-06 10:38:00,
2013-03-06 03:41:00,47.0,16.3,29.76,North,0,0.2,0.2,29,0.00,,,0.00,WUHU216HW,2013-03-06 10:41:00,
2013-03-06 03:42:00,47.0,16.3,29.76,North,0,0.0,0.4,29,0.00,,,0.00,WUHU216HW,2013-03-06 10:42:00,
2013-03-06 03:43:00,47.0,16.3,29.76,North,0,0.0,0.4,29,0.00,,,0.00,WUHU216HW,2013-03-06 10:43:00,
2013-03-06 03:46:00,46.8,16.1,29.76,North,0,0.0,0.4,29,0.00,,,0.00,WUHU216HW,2013-03-06 10:46:00,
2013-03-06 03:47:00,46.8,16.1,29.76,North,0,0.0,0.4,29,0.00,,,0.00,WUHU216HW,2013-03-06 10:47:00,
2013-03-06 03:48:00,46.8,16.1,29.76,North,0,0.0,0.4,29,0.00,,,0.00,WUHU216HW,2013-03-06 10:48:00,
2013-03-06 03:49:00,46.8,16.1,29.76,North,0,0.0,0.4,29,0.00,,,0.00,WUHU216HW,2013-03-06 10:49:00,
2013-03-06 03:51:00,46.8,16.1,29.76,North,0,0.0,0.0,29,0.00,,,0.00,WUHU216HW,2013-03-06 10:51:00,
2013-03-06 03:53:00,46.8,16.1,29.76,North,0,0.0,0.0,29,0.00,,,0.00,WUHU216HW,2013-03-06 10:53:00,
2013-03-06 03:54:00,46.8,16.1,29.76,North,0,0.0,0.0,29,0.00,,,0.00,WUHU216HW,2013-03-06 10:54:00,
2013-03-06 03:57:00,47.0,16.3,29.76,North,0,0.0,0.0,29,0.00,,,0.00,WUHU216HW,2013-03-06 10:57:00,
2013-03-06 03:58:00,47.0,16.3,29.76,North,0,0.0,0.0,29,0.00,,,0.00,WUHU216HW,2013-03-06 10:58:00,
2013-03-06 03:59:00,47.0,16.3,29.75,North,0,0.0,0.0,29,0.00,,,0.00,WUHU216HW,2013-03-06 10:59:00,
2013-03-06 04:02:00,47.0,16.3,29.75,North,0,0.0,0.0,29,0.00,,,0.00,WUHU216HW,2013-03-06 11:02:00,
2013-03-06 04:03:00,46.8,16.1,29.75,North,0,0.0,0.0,29,0.00,,,0.00,WUHU216HW,2013-03-06 11:03:00,
2013-03-06 04:04:00,46.8,16.1,29.75,North,0,0.0,0.0,29,0.00,,,0.00,WUHU216HW,2013-03-06 11:04:00,
2013-03-06 04:07:00,46.8,16.1,29.76,North,0,0.0,0.0,29,0.00,,,0.00,WUHU216HW,2013-03-06 11:07:00,
2013-03-06 04:08:00,46.8,16.1,29.75,North,0,0.0,0.0,29,0.00,,,0.00,WUHU216HW,2013-03-06 11:08:00,
2013-03-06 04:09:00,46.8,16.1,29.75,North,0,0.0,0.0,29,0.00,,,0.00,WUHU216HW,2013-03-06 11:09:00,
2013-03-06 04:12:00,46.8,16.1,29.76,North,0,0.4,0.4,29,0.00,,,0.00,WUHU216HW,2013-03-06 11:12:00,
2013-03-06 04:13:00,46.8,16.1,29.76,North,0,0.4,0.4,29,0.00,,,0.00,WUHU216HW,2013-03-06 11:13:00,
2013-03-06 04:14:00,46.8,16.1,29.76,NNW,338,1.1,1.1,29,0.00,,,0.00,WUHU216HW,2013-03-06 11:14:00,
2013-03-06 04:15:00,46.8,16.1,29.76,NNW,338,1.1,1.1,29,0.00,,,0.00,WUHU216HW,2013-03-06 11:15:00,
2013-03-06 04:17:00,46.6,16.0,29.76,WNW,293,0.9,1.1,29,0.00,,,0.00,WUHU216HW,2013-03-06 11:17:00,
2013-03-06 04:18:00,46.6,16.0,29.76,WNW,293,0.4,1.1,29,0.00,,,0.00,WUHU216HW,2013-03-06 11:18:00,
2013-03-06 04:19:00,46.6,16.0,29.76,NW,315,0.4,1.1,29,0.00,,,0.00,WUHU216HW,2013-03-06 11:19:00,
2013-03-06 04:20:00,46.6,16.0,29.76,NW,315,0.4,1.1,29,0.00,,,0.00,WUHU216HW,2013-03-06 11:20:00,
2013-03-06 04:22:00,46.4,15.9,29.76,NW,315,1.1,1.3,29,0.00,,,0.00,WUHU216HW,2013-03-06 11:22:00,
2013-03-06 04:23:00,46.4,15.9,29.76,NNW,338,0.0,1.3,29,0.00,,,0.00,WUHU216HW,2013-03-06 11:23:00,
2013-03-06 04:25:00,46.4,16.7,29.76,WNW,293,1.1,1.3,30,0.00,,,0.00,WUHU216HW,2013-03-06 11:25:00,
2013-03-06 04:27:00,46.4,16.7,29.76,NW,315,0.2,1.3,30,0.00,,,0.00,WUHU216HW,2013-03-06 11:27:00,
2013-03-06 04:28:00,46.4,16.7,29.76,NW,315,0.2,1.3,30,0.00,,,0.00,WUHU216HW,2013-03-06 11:28:00,
2013-03-06 04:30:00,46.4,16.7,29.75,NNW,338,0.0,1.3,30,0.00,,,0.00,WUHU216HW,2013-03-06 11:30:00,
2013-03-06 04:32:00,46.4,16.7,29.76,NW,315,0.4,1.1,30,0.00,,,0.00,WUHU216HW,2013-03-06 11:32:00,
2013-03-06 04:33:00,46.4,16.7,29.76,NW,315,0.0,1.1,30,0.00,,,0.00,WUHU216HW,2013-03-06 11:33:00,
2013-03-06 04:35:00,46.4,16.7,29.76,NW,315,0.0,0.9,30,0.00,,,0.00,WUHU216HW,2013-03-06 11:35:00,
2013-03-06 04:37:00,46.4,16.7,29.76,NNW,338,0.2,0.4,30,0.00,,,0.00,WUHU216HW,2013-03-06 11:37:00,
2013-03-06 04:38:00,46.4,16.7,29.76,NNW,338,0.2,0.4,30,0.00,,,0.00,WUHU216HW,2013-03-06 11:38:00,
2013-03-06 04:40:00,46.4,17.4,29.76,NNW,338,0.0,0.7,31,0.00,,,0.00,WUHU216HW,2013-03-06 11:40:00,
2013-03-06 04:41:00,46.4,17.4,29.76,NNW,338,0.0,0.7,31,0.00,,,0.00,WUHU216HW,2013-03-06 11:41:00,
2013-03-06 04:43:00,46.4,17.4,29.76,NNW,338,0.0,0.7,31,0.00,,,0.00,WUHU216HW,2013-03-06 11:43:00,
2013-03-06 04:45:00,46.4,17.4,29.76,NNW,338,0.0,0.7,31,0.00,,,0.00,WUHU216HW,2013-03-06 11:45:00,
2013-03-06 04:46:00,46.4,17.4,29.76,NNW,338,0.0,0.7,31,0.00,,,0.00,WUHU216HW,2013-03-06 11:46:00,
2013-03-06 04:48:00,46.4,17.4,29.76,NNW,338,0.0,0.7,31,0.00,,,0.00,WUHU216HW,2013-03-06 11:48:00,
2013-03-06 04:50:00,46.4,17.4,29.76,NNW,338,0.0,0.0,31,0.00,,,0.00,WUHU216HW,2013-03-06 11:50:00,
2013-03-06 04:51:00,46.4,17.4,29.76,NNW,338,0.0,0.0,31,0.00,,,0.00,WUHU216HW,2013-03-06 11:51:00,
2013-03-06 04:53:00,46.6,17.6,29.76,NW,315,0.4,0.4,31,0.00,,,0.00,WUHU216HW,2013-03-06 11:53:00,
2013-03-06 04:55:00,46.6,17.6,29.76,SE,135,0.0,0.7,31,0.00,,,0.00,WUHU216HW,2013-03-06 11:55:00,
2013-03-06 04:56:00,46.6,17.6,29.76,SE,135,0.0,0.7,31,0.00,,,0.00,WUHU216HW,2013-03-06 11:56:00,
2013-03-06 04:58:00,46.4,17.4,29.76,North,0,0.0,0.7,31,0.00,,,0.00,WUHU216HW,2013-03-06 11:58:00,
2013-03-06 05:00:00,46.4,17.4,29.76,NE,45,0.7,0.7,31,0.00,,,0.00,WUHU216HW,2013-03-06 12:00:00,
2013-03-06 05:01:00,46.4,17.4,29.76,ENE,68,0.4,0.7,31,0.00,,,0.00,WUHU216HW,2013-03-06 12:01:00,
2013-03-06 05:03:00,46.4,17.4,29.75,ENE,68,0.0,0.7,31,0.00,,,0.00,WUHU216HW,2013-03-06 12:03:00,
2013-03-06 05:06:00,46.4,17.4,29.75,ENE,68,0.0,0.7,31,0.00,,,0.00,WUHU216HW,2013-03-06 12:06:00,
2013-03-06 05:07:00,46.4,17.4,29.75,ENE,68,0.0,0.7,31,0.00,,,0.00,WUHU216HW,2013-03-06 12:07:00,
2013-03-06 05:08:00,46.4,17.4,29.75,ENE,68,0.0,0.7,31,0.00,,,0.00,WUHU216HW,2013-03-06 12:08:00,
2013-03-06 05:09:00,46.4,17.4,29.75,ENE,68,0.0,0.7,31,0.00,,,0.00,WUHU216HW,2013-03-06 12:09:00,
2013-03-06 05:11:00,46.4,17.4,29.76,ENE,68,0.0,0.4,31,0.00,,,0.00,WUHU216HW,2013-03-06 12:11:00,
2013-03-06 05:12:00,46.4,17.4,29.76,ENE,68,0.0,0.0,31,0.00,,,0.00,WUHU216HW,2013-03-06 12:12:00,
2013-03-06 05:13:00,46.4,17.4,29.75,ENE,68,0.0,0.0,31,0.00,,,0.00,WUHU216HW,2013-03-06 12:13:00,
2013-03-06 05:14:00,46.4,17.4,29.75,ENE,68,0.0,0.0,31,0.00,,,0.00,WUHU216HW,2013-03-06 12:14:00,
2013-03-06 05:16:00,46.4,17.4,29.75,ENE,68,0.0,0.0,31,0.00,,,0.00,WUHU216HW,2013-03-06 12:16:00,
2013-03-06 05:17:00,46.4,17.4,29.75,ENE,68,0.0,0.0,31,0.00,,,0.00,WUHU216HW,2013-03-06 12:17:00,
2013-03-06 05:18:00,46.4,17.4,29.75,ENE,68,0.0,0.0,31,0.00,,,0.00,WUHU216HW,2013-03-06 12:18:00,
2013-03-06 05:19:00,46.4,17.4,29.75,ENE,68,0.0,0.0,31,0.00,,,0.00,WUHU216HW,2013-03-06 12:19:00,
2013-03-06 05:21:00,46.4,17.4,29.76,ENE,68,0.0,0.0,31,0.00,,,0.00,WUHU216HW,2013-03-06 12:21:00,
2013-03-06 05:22:00,46.4,17.4,29.75,ENE,68,0.0,0.0,31,0.00,,,0.00,WUHU216HW,2013-03-06 12:22:00,
2013-03-06 05:23:00,46.4,17.4,29.75,ENE,68,0.0,0.0,31,0.00,,,0.00,WUHU216HW,2013-03-06 12:23:00,
2013-03-06 05:24:00,46.4,17.4,29.75,ENE,68,0.0,0.0,31,0.00,,,0.00,WUHU216HW,2013-03-06 12:24:00,
2013-03-06 05:26:00,46.4,17.4,29.75,ENE,68,0.0,0.0,31,0.00,,,0.00,WUHU216HW,2013-03-06 12:26:00,
2013-03-06 05:27:00,46.4,17.4,29.75,ENE,68,0.0,0.0,31,0.00,,,0.00,WUHU216HW,2013-03-06 12:27:00,
2013-03-06 05:29:00,46.4,17.4,29.76,ENE,68,0.0,0.0,31,0.00,,,0.00,WUHU216HW,2013-03-06 12:29:00,
2013-03-06 05:31:00,46.4,17.4,29.75,NE,45,1.3,1.3,31,0.00,,,0.00,WUHU216HW,2013-03-06 12:31:00,
2013-03-06 05:32:00,46.4,17.4,29.76,NNE,23,1.8,1.8,31,0.00,,,0.00,WUHU216HW,2013-03-06 12:32:00,
2013-03-06 05:34:00,46.4,17.4,29.76,NNE,23,1.6,1.8,31,0.00,,,0.00,WUHU216HW,2013-03-06 12:34:00,
2013-03-06 05:36:00,46.4,17.4,29.76,North,0,0.4,1.8,31,0.00,,,0.00,WUHU216HW,2013-03-06 12:36:00,
2013-03-06 05:37:00,46.3,17.3,29.75,North,0,0.2,1.8,31,0.00,,,0.00,WUHU216HW,2013-03-06 12:37:00,
2013-03-06 05:39:00,46.3,17.3,29.76,North,0,0.0,1.8,31,0.00,,,0.00,WUHU216HW,2013-03-06 12:39:00,
2013-03-06 05:41:00,46.3,17.3,29.76,North,0,0.0,1.8,31,0.00,,,0.00,WUHU216HW,2013-03-06 12:41:00,
2013-03-06 05:42:00,46.3,17.3,29.75,North,0,0.0,1.8,31,0.00,,,0.00,WUHU216HW,2013-03-06 12:42:00,
2013-03-06 05:44:00,46.3,17.3,29.76,North,0,0.0,1.8,31,0.00,,,0.00,WUHU216HW,2013-03-06 12:44:00,
2013-03-06 05:46:00,46.1,17.1,29.76,North,0,0.0,0.2,31,0.00,,,0.00,WUHU216HW,2013-03-06 12:46:00,
2013-03-06 05:47:00,46.1,17.1,29.76,North,0,0.0,0.2,31,0.00,,,0.00,WUHU216HW,2013-03-06 12:47:00,
2013-03-06 05:49:00,46.3,17.3,29.76,North,0,0.0,0.2,31,0.00,,,0.00,WUHU216HW,2013-03-06 12:49:00,
2013-03-06 05:50:00,46.3,17.3,29.76,North,0,0.0,0.2,31,0.00,,,0.00,WUHU216HW,2013-03-06 12:50:00,
2013-03-06 05:51:00,46.1,17.1,29.76,North,0,0.0,0.2,31,0.00,,,0.00,WUHU216HW,2013-03-06 12:51:00,
2013-03-06 05:52:00,46.3,17.3,29.76,North,0,0.0,0.2,31,0.00,,,0.00,WUHU216HW,2013-03-06 12:52:00,
2013-03-06 05:54:00,46.3,17.3,29.76,North,0,0.0,0.2,31,0.00,,,0.00,WUHU216HW,2013-03-06 12:54:00,
2013-03-06 05:55:00,46.3,17.3,29.76,North,0,0.0,0.0,31,0.00,,,0.00,WUHU216HW,2013-03-06 12:55:00,
2013-03-06 05:56:00,46.3,17.3,29.76,North,0,0.0,0.0,31,0.00,,,0.00,WUHU216HW,2013-03-06 12:56:00,
2013-03-06 05:57:00,46.3,17.3,29.76,North,0,0.0,0.0,31,0.00,,,0.00,WUHU216HW,2013-03-06 12:57:00,
2013-03-06 05:59:00,46.3,17.3,29.76,North,0,0.2,0.2,31,0.00,,,0.00,WUHU216HW,2013-03-06 12:59:00,
2013-03-06 06:00:00,46.3,17.3,29.76,North,0,0.0,0.2,31,0.00,,,0.00,WUHU216HW,2013-03-06 13:00:00,
2013-03-06 06:01:00,46.3,17.3,29.76,North,0,0.2,0.2,31,0.00,,,0.00,WUHU216HW,2013-03-06 13:01:00,
2013-03-06 06:02:00,46.3,17.3,29.76,NNE,23,0.2,0.2,31,0.00,,,0.00,WUHU216HW,2013-03-06 13:02:00,
2013-03-06 06:04:00,46.3,17.3,29.76,NE,45,1.8,1.8,31,0.00,,,0.00,WUHU216HW,2013-03-06 13:04:00,
2013-03-06 06:05:00,46.3,17.3,29.75,NE,45,1.6,1.8,31,0.00,,,0.00,WUHU216HW,2013-03-06 13:05:00,
2013-03-06 06:06:00,46.3,17.3,29.75,NE,45,1.8,1.8,31,0.00,,,0.00,WUHU216HW,2013-03-06 13:06:00,
2013-03-06 06:07:00,46.3,17.3,29.75,NE,45,0.7,1.8,31,0.00,,,0.00,WUHU216HW,2013-03-06 13:07:00,
2013-03-06 06:09:00,46.1,17.1,29.75,NNE,23,1.6,1.8,31,0.00,,,0.00,WUHU216HW,2013-03-06 13:09:00,
2013-03-06 06:10:00,46.1,17.1,29.75,NNE,23,2.7,2.7,31,0.00,,,0.00,WUHU216HW,2013-03-06 13:10:00,
2013-03-06 06:11:00,46.1,17.1,29.75,NNE,23,1.3,2.7,31,0.00,,,0.00,WUHU216HW,2013-03-06 13:11:00,
2013-03-06 06:12:00,46.1,17.1,29.76,NNE,23,1.8,2.7,31,0.00,,,0.00,WUHU216HW,2013-03-06 13:12:00,
2013-03-06 06:14:00,45.9,16.9,29.75,NNE,23,1.8,2.7,31,0.00,,,0.00,WUHU216HW,2013-03-06 13:14:00,
2013-03-06 06:15:00,45.9,16.9,29.76,North,0,3.4,3.4,31,0.00,,,0.00,WUHU216HW,2013-03-06 13:15:00,
2013-03-06 06:16:00,45.9,16.9,29.76,North,0,2.2,3.4,31,0.00,,,0.00,WUHU216HW,2013-03-06 13:16:00,
2013-03-06 06:18:00,45.9,17.6,29.75,NNE,23,2.2,3.4,32,0.00,,,0.00,WUHU216HW,2013-03-06 13:18:00,
2013-03-06 06:20:00,45.9,17.6,29.75,NNE,23,1.8,3.4,32,0.00,,,0.00,WUHU216HW,2013-03-06 13:20:00,
2013-03-06 06:22:00,45.7,17.5,29.75,North,0,1.8,3.4,32,0.00,,,0.00,WUHU216HW,2013-03-06 13:22:00,
2013-03-06 06:23:00,45.7,17.5,29.75,NNE,23,1.8,3.4,32,0.00,,,0.00,WUHU216HW,2013-03-06 13:23:00,
2013-03-06 06:25:00,45.7,17.5,29.75,North,0,1.1,3.4,32,0.00,,,0.00,WUHU216HW,2013-03-06 13:25:00,
2013-03-06 06:27:00,45.7,17.5,29.76,NNW,338,0.4,1.8,32,0.00,,,0.00,WUHU216HW,2013-03-06 13:27:00,
2013-03-06 06:28:00,45.7,17.5,29.76,NNW,338,0.0,1.8,32,0.00,,,0.00,WUHU216HW,2013-03-06 13:28:00,
2013-03-06 06:30:00,45.7,17.5,29.76,NNW,338,0.7,1.8,32,0.00,,,0.00,WUHU216HW,2013-03-06 13:30:00,
2013-03-06 06:32:00,45.7,17.5,29.76,NNW,338,0.0,1.8,32,0.00,,,0.00,WUHU216HW,2013-03-06 13:32:00,
2013-03-06 06:33:00,45.9,17.6,29.76,NNW,338,0.0,1.1,32,0.00,,,0.00,WUHU216HW,2013-03-06 13:33:00,
2013-03-06 06:35:00,45.9,17.6,29.76,NNW,338,0.0,0.7,32,0.00,,,0.00,WUHU216HW,2013-03-06 13:35:00,
2013-03-06 06:37:00,45.9,17.6,29.76,North,0,0.4,0.7,32,0.00,,,0.00,WUHU216HW,2013-03-06 13:37:00,
2013-03-06 06:39:00,45.9,17.6,29.76,NNE,23,1.8,1.8,32,0.00,,,0.00,WUHU216HW,2013-03-06 13:39:00,
2013-03-06 06:40:00,45.9,17.6,29.76,NNE,23,1.8,2.2,32,0.00,,,0.00,WUHU216HW,2013-03-06 13:40:00,
2013-03-06 06:41:00,45.9,17.6,29.76,NNE,23,1.8,2.2,32,0.00,,,0.00,WUHU216HW,2013-03-06 13:41:00,
2013-03-06 06:42:00,45.9,17.6,29.76,NE,45,0.2,2.2,32,0.00,,,0.00,WUHU216HW,2013-03-06 13:42:00,
2013-03-06 06:44:00,45.7,17.5,29.76,NNE,23,0.0,2.2,32,0.00,,,0.00,WUHU216HW,2013-03-06 13:44:00,
2013-03-06 06:45:00,45.9,17.6,29.76,WSW,248,0.4,2.2,32,0.00,,,0.00,WUHU216HW,2013-03-06 13:45:00,
2013-03-06 06:46:00,45.9,17.6,29.76,WSW,248,0.4,2.2,32,0.00,,,0.00,WUHU216HW,2013-03-06 13:46:00,
2013-03-06 06:47:00,45.9,17.6,29.75,WSW,248,0.0,2.2,32,0.00,,,0.00,WUHU216HW,2013-03-06 13:47:00,
2013-03-06 06:49:00,45.9,17.6,29.75,NNE,23,1.1,2.2,32,0.00,,,0.00,WUHU216HW,2013-03-06 13:49:00,
2013-03-06 06:51:00,45.9,17.6,29.75,NNE,23,0.7,1.1,32,0.00,,,0.00,WUHU216HW,2013-03-06 13:51:00,
2013-03-06 06:52:00,45.9,17.6,29.75,NE,45,0.4,1.1,32,0.00,,,0.00,WUHU216HW,2013-03-06 13:52:00,
2013-03-06 06:54:00,45.9,17.6,29.75,NE,45,0.4,1.1,32,0.00,,,0.00,WUHU216HW,2013-03-06 13:54:00,
2013-03-06 06:56:00,46.1,18.5,29.76,NNE,23,1.1,1.1,33,0.00,,,0.00,WUHU216HW,2013-03-06 13:56:00,
2013-03-06 06:57:00,45.9,18.3,29.76,NNE,23,1.8,2.7,33,0.00,,,0.00,WUHU216HW,2013-03-06 13:57:00,
2013-03-06 06:59:00,46.1,18.5,29.76,NE,45,1.8,2.7,33,0.00,,,0.00,WUHU216HW,2013-03-06 13:59:00,
2013-03-06 07:01:00,45.9,18.3,29.75,NNE,23,1.6,2.7,33,0.00,,,0.00,WUHU216HW,2013-03-06 14:01:00,
2013-03-06 07:03:00,45.9,18.3,29.75,NNE,23,1.1,2.7,33,0.00,,,0.00,WUHU216HW,2013-03-06 14:03:00,
2013-03-06 07:04:00,45.9,18.3,29.75,NNE,23,2.9,2.9,33,0.00,,,0.00,WUHU216HW,2013-03-06 14:04:00,
2013-03-06 07:06:00,45.9,18.3,29.75,NNE,23,2.2,3.1,33,0.00,,,0.00,WUHU216HW,2013-03-06 14:06:00,
2013-03-06 07:08:00,46.1,18.5,29.76,North,0,3.8,3.8,33,0.00,,,0.00,WUHU216HW,2013-03-06 14:08:00,
2013-03-06 07:09:00,46.1,18.5,29.76,NE,45,3.4,3.8,33,0.00,,,0.00,WUHU216HW,2013-03-06 14:09:00,
2013-03-06 07:11:00,46.1,18.5,29.76,North,0,3.8,3.8,33,0.00,,,0.00,WUHU216HW,2013-03-06 14:11:00,
2013-03-06 07:13:00,46.1,18.5,29.76,NNE,23,4.0,4.0,33,0.00,,,0.00,WUHU216HW,2013-03-06 14:13:00,
2013-03-06 07:14:00,46.1,18.5,29.76,NNE,23,2.9,4.0,33,0.00,,,0.00,WUHU216HW,2013-03-06 14:14:00,
2013-03-06 07:16:00,45.9,18.3,29.75,NNE,23,3.4,4.0,33,0.00,,,0.00,WUHU216HW,2013-03-06 14:16:00,
2013-03-06 07:18:00,45.9,18.3,29.76,NNE,23,2.5,4.0,33,0.00,,,0.00,WUHU216HW,2013-03-06 14:18:00,
2013-03-06 07:19:00,46.1,18.5,29.76,NNE,23,2.7,4.0,33,0.00,,,0.00,WUHU216HW,2013-03-06 14:19:00,
2013-03-06 07:21:00,46.1,18.5,29.76,North,0,2.2,4.0,33,0.00,,,0.00,WUHU216HW,2013-03-06 14:21:00,
2013-03-06 07:22:00,46.1,18.5,29.76,North,0,2.2,4.0,33,0.00,,,0.00,WUHU216HW,2013-03-06 14:22:00,
2013-03-06 07:23:00,45.9,18.9,29.76,NNE,23,4.0,4.0,34,0.00,,,0.00,WUHU216HW,2013-03-06 14:23:00,
2013-03-06 07:24:00,46.1,18.5,29.76,North,0,2.9,4.0,33,0.00,,,0.00,WUHU216HW,2013-03-06 14:24:00,
2013-03-06 07:26:00,46.1,18.5,29.76,NE,45,2.5,4.0,33,0.00,,,0.00,WUHU216HW,2013-03-06 14:26:00,
2013-03-06 07:27:00,46.1,18.5,29.76,NNE,23,3.6,4.0,33,0.00,,,0.00,WUHU216HW,2013-03-06 14:27:00,
2013-03-06 07:28:00,46.3,18.5,29.76,North,0,2.0,4.0,33,0.00,,,0.00,WUHU216HW,2013-03-06 14:28:00,
2013-03-06 07:30:00,46.3,18.5,29.76,NNE,23,1.1,4.0,33,0.00,,,0.00,WUHU216HW,2013-03-06 14:30:00,
2013-03-06 07:31:00,46.3,18.5,29.76,NE,45,1.6,4.0,33,0.00,,,0.00,WUHU216HW,2013-03-06 14:31:00,
2013-03-06 07:32:00,46.3,18.5,29.76,NNE,23,1.3,4.0,33,0.00,,,0.00,WUHU216HW,2013-03-06 14:32:00,
2013-03-06 07:34:00,46.1,18.5,29.76,NNE,23,1.1,3.6,33,0.00,,,0.00,WUHU216HW,2013-03-06 14:34:00,
2013-03-06 07:35:00,46.1,18.5,29.76,NNE,23,1.1,3.6,33,0.00,,,0.00,WUHU216HW,2013-03-06 14:35:00,
2013-03-06 07:36:00,46.3,18.5,29.76,NNE,23,2.2,3.6,33,0.00,,,0.00,WUHU216HW,2013-03-06 14:36:00,
2013-03-06 07:37:00,46.3,18.5,29.76,NNE,23,1.8,2.5,33,0.00,,,0.00,WUHU216HW,2013-03-06 14:37:00,
2013-03-06 07:39:00,46.4,18.7,29.76,NNW,338,0.7,2.5,33,0.00,,,0.00,WUHU216HW,2013-03-06 14:39:00,
2013-03-06 07:40:00,46.4,18.7,29.76,North,0,1.6,2.5,33,0.00,,,0.00,WUHU216HW,2013-03-06 14:40:00,
2013-03-06 07:41:00,46.4,18.7,29.76,NNW,338,0.7,2.5,33,0.00,,,0.00,WUHU216HW,2013-03-06 14:41:00,
2013-03-06 07:42:00,46.4,18.7,29.76,North,0,1.1,2.5,33,0.00,,,0.00,WUHU216HW,2013-03-06 14:42:00,
2013-03-06 07:44:00,46.6,18.9,29.76,NNW,338,0.4,2.2,33,0.00,,,0.00,WUHU216HW,2013-03-06 14:44:00,
2013-03-06 07:45:00,46.8,19.1,29.76,North,0,0.9,2.2,33,0.00,,,0.00,WUHU216HW,2013-03-06 14:45:00,
2013-03-06 07:46:00,46.8,19.1,29.76,North,0,0.4,1.8,33,0.00,,,0.00,WUHU216HW,2013-03-06 14:46:00,
2013-03-06 07:47:00,46.8,19.1,29.76,North,0,2.2,2.2,33,0.00,,,0.00,WUHU216HW,2013-03-06 14:47:00,
2013-03-06 07:49:00,47.2,20.1,29.76,North,0,0.9,2.2,34,0.00,,,0.00,WUHU216HW,2013-03-06 14:49:00,
2013-03-06 07:50:00,47.2,20.1,29.76,North,0,2.5,2.5,34,0.00,,,0.00,WUHU216HW,2013-03-06 14:50:00,
2013-03-06 07:51:00,47.3,20.3,29.76,North,0,3.1,3.1,34,0.00,,,0.00,WUHU216HW,2013-03-06 14:51:00,
2013-03-06 07:52:00,47.5,20.3,29.76,North,0,4.0,4.0,34,0.00,,,0.00,WUHU216HW,2013-03-06 14:52:00,
2013-03-06 07:55:00,47.7,19.9,29.76,North,0,1.8,4.0,33,0.00,,,0.00,WUHU216HW,2013-03-06 14:55:00,
2013-03-06 07:56:00,47.9,20.1,29.76,North,0,2.5,4.0,33,0.00,,,0.00,WUHU216HW,2013-03-06 14:56:00,
2013-03-06 07:57:00,47.9,20.1,29.76,North,0,0.7,4.0,33,0.00,,,0.00,WUHU216HW,2013-03-06 14:57:00,
2013-03-06 08:00:00,48.1,20.2,29.77,North,0,1.8,4.0,33,0.00,,,0.00,WUHU216HW,2013-03-06 15:00:00,
2013-03-06 08:01:00,48.2,20.3,29.77,NNE,23,2.0,4.0,33,0.00,,,0.00,WUHU216HW,2013-03-06 15:01:00,
2013-03-06 08:02:00,48.2,20.3,29.77,NNE,23,2.0,4.0,33,0.00,,,0.00,WUHU216HW,2013-03-06 15:02:00,
2013-03-06 08:03:00,48.1,20.2,29.77,NNE,23,2.5,2.9,33,0.00,,,0.00,WUHU216HW,2013-03-06 15:03:00,
2013-03-06 08:05:00,48.4,20.5,29.76,North,0,2.5,2.7,33,0.00,,,0.00,WUHU216HW,2013-03-06 15:05:00,
2013-03-06 08:06:00,48.8,20.8,29.77,North,0,3.4,3.4,33,0.00,,,0.00,WUHU216HW,2013-03-06 15:06:00,
2013-03-06 08:07:00,48.8,20.8,29.77,North,0,3.4,3.4,33,0.00,,,0.00,WUHU216HW,2013-03-06 15:07:00,
2013-03-06 08:08:00,49.0,21.0,29.77,North,0,3.1,3.4,33,0.00,,,0.00,WUHU216HW,2013-03-06 15:08:00,
2013-03-06 08:10:00,49.5,20.7,29.77,North,0,3.1,4.3,32,0.00,,,0.00,WUHU216HW,2013-03-06 15:10:00,
2013-03-06 08:12:00,49.7,20.9,29.77,NNE,23,3.1,4.3,32,0.00,,,0.00,WUHU216HW,2013-03-06 15:12:00,
2013-03-06 08:13:00,49.9,21.1,29.77,NNW,338,2.2,4.3,32,0.00,,,0.00,WUHU216HW,2013-03-06 15:13:00,
2013-03-06 08:15:00,50.6,21.7,29.77,NNE,23,0.9,4.3,32,0.00,,,0.00,WUHU216HW,2013-03-06 15:15:00,
2013-03-06 08:17:00,50.8,21.8,29.77,North,0,3.4,4.3,32,0.00,,,0.00,WUHU216HW,2013-03-06 15:17:00,
2013-03-06 08:18:00,51.1,21.4,29.77,NE,45,2.7,3.4,31,0.00,,,0.00,WUHU216HW,2013-03-06 15:18:00,
2013-03-06 08:20:00,51.5,21.8,29.77,North,0,4.7,4.7,31,0.00,,,0.00,WUHU216HW,2013-03-06 15:20:00,
2013-03-06 08:22:00,51.5,21.8,29.77,North,0,4.0,4.7,31,0.00,,,0.00,WUHU216HW,2013-03-06 15:22:00,
2013-03-06 08:23:00,51.7,22.0,29.77,NE,45,2.5,4.7,31,0.00,,,0.00,WUHU216HW,2013-03-06 15:23:00,
2013-03-06 08:25:00,51.8,22.2,29.77,NNE,23,1.1,4.7,31,0.00,,,0.00,WUHU216HW,2013-03-06 15:25:00,
2013-03-06 08:27:00,52.0,22.2,29.77,NE,45,2.0,4.7,31,0.00,,,0.00,WUHU216HW,2013-03-06 15:27:00,
2013-03-06 08:28:00,52.2,21.8,29.77,ENE,68,3.8,4.7,30,0.00,,,0.00,WUHU216HW,2013-03-06 15:28:00,
2013-03-06 08:30:00,52.2,21.8,29.77,NE,45,4.7,4.9,30,0.00,,,0.00,WUHU216HW,2013-03-06 15:30:00,
2013-03-06 08:32:00,52.0,21.6,29.77,NE,45,3.4,4.9,30,0.00,,,0.00,WUHU216HW,2013-03-06 15:32:00,
2013-03-06 08:33:00,51.8,21.4,29.77,ENE,68,2.0,4.9,30,0.00,,,0.00,WUHU216HW,2013-03-06 15:33:00,
2013-03-06 08:36:00,51.7,21.2,29.77,ENE,68,4.0,4.9,30,0.00,,,0.00,WUHU216HW,2013-03-06 15:36:00,
2013-03-06 08:37:00,51.5,21.1,29.77,NNE,23,4.0,4.9,30,0.00,,,0.00,WUHU216HW,2013-03-06 15:37:00,
2013-03-06 08:38:00,51.5,21.8,29.77,NNE,23,3.6,4.9,31,0.00,,,0.00,WUHU216HW,2013-03-06 15:38:00,
2013-03-06 08:41:00,51.3,21.6,29.77,ENE,68,4.0,6.0,31,0.00,,,0.00,WUHU216HW,2013-03-06 15:41:00,
2013-03-06 08:42:00,51.3,21.6,29.77,ENE,68,4.0,6.0,31,0.00,,,0.00,WUHU216HW,2013-03-06 15:42:00,
2013-03-06 08:44:00,51.3,21.6,29.77,NNE,23,5.6,6.0,31,0.00,,,0.00,WUHU216HW,2013-03-06 15:44:00,
2013-03-06 08:46:00,51.3,21.6,29.77,NE,45,4.7,6.0,31,0.00,,,0.00,WUHU216HW,2013-03-06 15:46:00,
2013-03-06 08:47:00,51.3,21.6,29.77,NE,45,3.6,6.0,31,0.00,,,0.00,WUHU216HW,2013-03-06 15:47:00,
2013-03-06 08:49:00,51.3,21.6,29.77,ENE,68,5.4,6.0,31,0.00,,,0.00,WUHU216HW,2013-03-06 15:49:00,
2013-03-06 08:51:00,51.5,21.8,29.77,NE,45,3.6,5.6,31,0.00,,,0.00,WUHU216HW,2013-03-06 15:51:00,
2013-03-06 08:52:00,51.5,21.8,29.77,ENE,68,4.0,5.6,31,0.00,,,0.00,WUHU216HW,2013-03-06 15:52:00,
2013-03-06 08:54:00,51.7,22.0,29.77,ENE,68,3.6,5.4,31,0.00,,,0.00,WUHU216HW,2013-03-06 15:54:00,
2013-03-06 08:57:00,51.8,22.2,29.77,ENE,68,3.1,5.4,31,0.00,,,0.00,WUHU216HW,2013-03-06 15:57:00,
2013-03-06 08:59:00,52.2,22.4,29.76,NE,45,2.5,4.5,31,0.00,,,0.00,WUHU216HW,2013-03-06 15:59:00,
2013-03-06 09:02:00,52.6,22.8,29.76,NE,45,2.0,4.0,31,0.00,,,0.00,WUHU216HW,2013-03-06 16:02:00,
2013-03-06 09:04:00,52.9,23.0,29.77,NE,45,1.8,3.1,31,0.00,,,0.00,WUHU216HW,2013-03-06 16:04:00,
2013-03-06 09:07:00,53.3,22.7,29.77,NNE,23,2.0,2.7,30,0.00,,,0.00,WUHU216HW,2013-03-06 16:07:00,
2013-03-06 09:09:00,53.6,23.0,29.77,ENE,68,0.7,3.6,30,0.00,,,0.00,WUHU216HW,2013-03-06 16:09:00,
2013-03-06 09:12:00,54.0,23.3,29.77,North,0,1.8,3.6,30,0.00,,,0.00,WUHU216HW,2013-03-06 16:12:00,
2013-03-06 09:13:00,54.2,23.5,29.77,NNW,338,1.8,3.6,30,0.00,,,0.00,WUHU216HW,2013-03-06 16:13:00,
2013-03-06 09:14:00,54.2,23.5,29.77,NNW,338,0.4,3.6,30,0.00,,,0.00,WUHU216HW,2013-03-06 16:14:00,
2013-03-06 09:17:00,54.5,23.8,29.76,North,0,0.9,2.9,30,0.00,,,0.00,WUHU216HW,2013-03-06 16:17:00,
2013-03-06 09:18:00,54.5,23.8,29.76,North,0,0.9,2.0,30,0.00,,,0.00,WUHU216HW,2013-03-06 16:18:00,
2013-03-06 09:19:00,54.9,23.1,29.77,NNE,23,2.2,2.2,29,0.00,,,0.00,WUHU216HW,2013-03-06 16:19:00,
2013-03-06 09:22:00,55.1,23.2,29.76,NNW,338,0.4,2.2,29,0.00,,,0.00,WUHU216HW,2013-03-06 16:22:00,
2013-03-06 09:23:00,55.1,23.2,29.76,NNW,338,0.4,2.2,29,0.00,,,0.00,WUHU216HW,2013-03-06 16:23:00,
2013-03-06 09:25:00,55.4,23.6,29.76,ENE,68,0.2,2.2,29,0.00,,,0.00,WUHU216HW,2013-03-06 16:25:00,
2013-03-06 09:27:00,55.8,23.9,29.76,NNW,338,0.4,2.2,29,0.00,,,0.00,WUHU216HW,2013-03-06 16:27:00,
2013-03-06 09:28:00,55.8,23.9,29.76,NNW,338,0.0,2.2,29,0.00,,,0.00,WUHU216HW,2013-03-06 16:28:00,
2013-03-06 09:30:00,55.8,23.9,29.76,NNW,338,0.0,2.0,29,0.00,,,0.00,WUHU216HW,2013-03-06 16:30:00,
2013-03-06 09:32:00,56.0,23.0,29.76,ENE,68,0.0,2.0,28,0.00,,,0.00,WUHU216HW,2013-03-06 16:32:00,
2013-03-06 09:33:00,56.0,23.0,29.76,ENE,68,0.0,2.0,28,0.00,,,0.00,WUHU216HW,2013-03-06 16:33:00,
2013-03-06 09:35:00,56.2,23.2,29.76,South,180,0.0,2.0,28,0.00,,,0.00,WUHU216HW,2013-03-06 16:35:00,
2013-03-06 09:37:00,56.5,23.6,29.76,SW,225,2.2,2.2,28,0.00,,,0.00,WUHU216HW,2013-03-06 16:37:00,
2013-03-06 09:38:00,56.5,23.6,29.76,SW,225,1.3,2.2,28,0.00,,,0.00,WUHU216HW,2013-03-06 16:38:00,
2013-03-06 09:40:00,56.9,23.9,29.76,SE,135,0.7,2.2,28,0.00,,,0.00,WUHU216HW,2013-03-06 16:40:00,
2013-03-06 09:42:00,56.9,23.9,29.76,SSE,158,0.7,5.4,28,0.00,,,0.00,WUHU216HW,2013-03-06 16:42:00,
2013-03-06 09:43:00,56.9,23.9,29.76,SSE,158,0.7,5.4,28,0.00,,,0.00,WUHU216HW,2013-03-06 16:43:00,
2013-03-06 09:45:00,57.1,24.0,29.76,SSW,203,2.9,5.4,28,0.00,,,0.00,WUHU216HW,2013-03-06 16:45:00,
2013-03-06 09:47:00,57.1,24.0,29.76,SSW,203,6.9,7.6,28,0.00,,,0.00,WUHU216HW,2013-03-06 16:47:00,
2013-03-06 09:48:00,57.1,24.0,29.76,SSW,203,6.9,7.6,28,0.00,,,0.00,WUHU216HW,2013-03-06 16:48:00,
2013-03-06 09:49:00,57.1,24.0,29.76,SSE,158,8.7,8.7,28,0.00,,,0.00,WUHU216HW,2013-03-06 16:49:00,
2013-03-06 09:50:00,56.9,23.0,29.76,SE,135,6.3,8.7,27,0.00,,,0.00,WUHU216HW,2013-03-06 16:50:00,
2013-03-06 09:52:00,56.7,22.8,29.75,SSE,158,6.9,8.7,27,0.00,,,0.00,WUHU216HW,2013-03-06 16:52:00,
2013-03-06 09:53:00,56.7,23.8,29.76,SSE,158,5.6,8.7,28,0.00,,,0.00,WUHU216HW,2013-03-06 16:53:00,
2013-03-06 09:54:00,56.7,23.8,29.76,SSE,158,5.6,8.7,28,0.00,,,0.00,WUHU216HW,2013-03-06 16:54:00,
2013-03-06 09:55:00,56.7,23.8,29.75,SSE,158,4.7,8.7,28,0.00,,,0.00,WUHU216HW,2013-03-06 16:55:00,
2013-03-06 09:57:00,56.7,23.8,29.76,South,180,5.4,8.7,28,0.00,,,0.00,WUHU216HW,2013-03-06 16:57:00,
2013-03-06 09:58:00,56.9,23.9,29.75,SE,135,3.6,6.9,28,0.00,,,0.00,WUHU216HW,2013-03-06 16:58:00,
2013-03-06 09:59:00,56.9,23.9,29.75,SE,135,3.6,6.9,28,0.00,,,0.00,WUHU216HW,2013-03-06 16:59:00,
2013-03-06 10:00:00,57.1,24.0,29.75,SSE,158,4.0,6.9,28,0.00,,,0.00,WUHU216HW,2013-03-06 17:00:00,
2013-03-06 10:03:00,57.2,24.2,29.75,SSE,158,5.8,5.8,28,0.00,,,0.00,WUHU216HW,2013-03-06 17:03:00,
2013-03-06 10:04:00,57.4,23.4,29.75,SSE,158,4.7,5.8,27,0.00,,,0.00,WUHU216HW,2013-03-06 17:04:00,
2013-03-06 10:06:00,57.4,23.4,29.75,SSE,158,4.7,5.8,27,0.00,,,0.00,WUHU216HW,2013-03-06 17:06:00,
2013-03-06 10:08:00,57.4,23.4,29.75,South,180,6.5,8.5,27,0.00,,,0.00,WUHU216HW,2013-03-06 17:08:00,
2013-03-06 10:09:00,57.4,23.4,29.75,South,180,4.9,8.5,27,0.00,,,0.00,WUHU216HW,2013-03-06 17:09:00,
2013-03-06 10:11:00,57.6,24.5,29.75,SW,225,5.4,8.5,28,0.00,,,0.00,WUHU216HW,2013-03-06 17:11:00,
2013-03-06 10:13:00,57.8,23.7,29.75,SW,225,5.1,8.5,27,0.00,,,0.00,WUHU216HW,2013-03-06 17:13:00,
2013-03-06 10:14:00,57.8,23.7,29.75,SW,225,5.1,8.5,27,0.00,,,0.00,WUHU216HW,2013-03-06 17:14:00,
2013-03-06 10:16:00,58.1,24.0,29.75,SSW,203,7.4,8.5,27,0.00,,,0.00,WUHU216HW,2013-03-06 17:16:00,
2013-03-06 10:18:00,58.1,24.0,29.75,SW,225,7.2,10.3,27,0.00,,,0.00,WUHU216HW,2013-03-06 17:18:00,
2013-03-06 10:19:00,58.1,24.0,29.75,SW,225,7.2,10.3,27,0.00,,,0.00,WUHU216HW,2013-03-06 17:19:00,
2013-03-06 10:21:00,58.3,24.2,29.75,South,180,7.2,10.3,27,0.00,,,0.00,WUHU216HW,2013-03-06 17:21:00,
2013-03-06 10:23:00,58.5,24.3,29.75,SSW,203,7.8,10.3,27,0.00,,,0.00,WUHU216HW,2013-03-06 17:23:00,
2013-03-06 10:24:00,58.3,24.2,29.75,SSW,203,8.5,10.3,27,0.00,,,0.00,WUHU216HW,2013-03-06 17:24:00,
2013-03-06 10:25:00,58.3,24.2,29.75,SSW,203,8.5,10.3,27,0.00,,,0.00,WUHU216HW,2013-03-06 17:25:00,
2013-03-06 10:26:00,58.3,24.2,29.75,South,180,8.5,10.3,27,0.00,,,0.00,WUHU216HW,2013-03-06 17:26:00,
2013-03-06 10:28:00,58.5,24.3,29.74,SSW,203,6.5,9.4,27,0.00,,,0.00,WUHU216HW,2013-03-06 17:28:00,
2013-03-06 10:29:00,58.5,24.3,29.74,SSW,203,4.3,9.4,27,0.00,,,0.00,WUHU216HW,2013-03-06 17:29:00,
2013-03-06 10:30:00,58.5,24.3,29.74,SSW,203,4.3,9.2,27,0.00,,,0.00,WUHU216HW,2013-03-06 17:30:00,
2013-03-06 10:31:00,58.5,24.3,29.74,WSW,248,8.5,9.2,27,0.00,,,0.00,WUHU216HW,2013-03-06 17:31:00,
2013-03-06 10:33:00,58.7,24.5,29.74,SSW,203,9.6,9.6,27,0.00,,,0.00,WUHU216HW,2013-03-06 17:33:00,
2013-03-06 10:34:00,58.7,24.5,29.74,SSE,158,6.0,9.6,27,0.00,,,0.00,WUHU216HW,2013-03-06 17:34:00,
2013-03-06 10:35:00,58.5,24.3,29.74,SSW,203,6.3,9.6,27,0.00,,,0.00,WUHU216HW,2013-03-06 17:35:00,
2013-03-06 10:36:00,58.5,24.3,29.74,SW,225,3.4,9.6,27,0.00,,,0.00,WUHU216HW,2013-03-06 17:36:00,
2013-03-06 10:38:00,58.7,24.5,29.74,SSW,203,5.4,9.6,27,0.00,,,0.00,WUHU216HW,2013-03-06 17:38:00,
2013-03-06 10:39:00,58.7,24.5,29.74,South,180,7.4,9.6,27,0.00,,,0.00,WUHU216HW,2013-03-06 17:39:00,
2013-03-06 10:40:00,58.7,24.5,29.74,SSW,203,8.1,9.6,27,0.00,,,0.00,WUHU216HW,2013-03-06 17:40:00,
2013-03-06 10:41:00,58.7,24.5,29.74,SSW,203,9.6,9.6,27,0.00,,,0.00,WUHU216HW,2013-03-06 17:41:00,
2013-03-06 10:43:00,58.7,24.5,29.74,SSW,203,7.6,9.6,27,0.00,,,0.00,WUHU216HW,2013-03-06 17:43:00,
2013-03-06 10:44:00,58.7,24.5,29.74,South,180,11.0,11.0,27,0.00,,,0.00,WUHU216HW,2013-03-06 17:44:00,
2013-03-06 10:45:00,58.7,24.5,29.74,South,180,10.1,11.0,27,0.00,,,0.00,WUHU216HW,2013-03-06 17:45:00,
2013-03-06 10:47:00,58.5,24.3,29.74,SSE,158,12.1,12.1,27,0.00,,,0.00,WUHU216HW,2013-03-06 17:47:00,
2013-03-06 10:49:00,58.3,24.2,29.74,South,180,10.7,12.1,27,0.00,,,0.00,WUHU216HW,2013-03-06 17:49:00,
2013-03-06 10:50:00,58.3,24.2,29.74,SSW,203,9.4,12.1,27,0.00,,,0.00,WUHU216HW,2013-03-06 17:50:00,
2013-03-06 10:51:00,58.1,24.0,29.74,SSW,203,9.8,12.1,27,0.00,,,0.00,WUHU216HW,2013-03-06 17:51:00,
2013-03-06 10:52:00,58.1,24.0,29.74,South,180,8.3,12.1,27,0.00,,,0.00,WUHU216HW,2013-03-06 17:52:00,
2013-03-06 10:54:00,58.1,24.0,29.74,SSW,203,8.3,12.1,27,0.00,,,0.00,WUHU216HW,2013-03-06 17:54:00,
2013-03-06 10:55:00,58.0,23.9,29.74,South,180,6.9,12.1,27,0.00,,,0.00,WUHU216HW,2013-03-06 17:55:00,
2013-03-06 10:56:00,58.0,23.9,29.74,SSW,203,7.6,12.1,27,0.00,,,0.00,WUHU216HW,2013-03-06 17:56:00,
2013-03-06 10:57:00,58.0,23.9,29.74,SW,225,5.8,10.7,27,0.00,,,0.00,WUHU216HW,2013-03-06 17:57:00,
2013-03-06 10:59:00,58.0,23.9,29.74,SW,225,7.8,9.8,27,0.00,,,0.00,WUHU216HW,2013-03-06 17:59:00,
2013-03-06 11:00:00,58.0,23.9,29.74,SSW,203,9.2,9.8,27,0.00,,,0.00,WUHU216HW,2013-03-06 18:00:00,
2013-03-06 11:01:00,58.0,23.9,29.74,SSW,203,9.4,9.4,27,0.00,,,0.00,WUHU216HW,2013-03-06 18:01:00,
2013-03-06 11:03:00,58.1,25.0,29.74,SSW,203,4.7,9.4,28,0.00,,,0.00,WUHU216HW,2013-03-06 18:03:00,
2013-03-06 11:04:00,58.3,24.2,29.74,SW,225,9.2,9.4,27,0.00,,,0.00,WUHU216HW,2013-03-06 18:04:00,
2013-03-06 11:05:00,58.3,24.2,29.74,SW,225,8.9,9.4,27,0.00,,,0.00,WUHU216HW,2013-03-06 18:05:00,
2013-03-06 11:06:00,58.5,24.3,29.74,SSE,158,8.5,9.4,27,0.00,,,0.00,WUHU216HW,2013-03-06 18:06:00,
2013-03-06 11:08:00,58.5,24.3,29.74,South,180,7.4,9.4,27,0.00,,,0.00,WUHU216HW,2013-03-06 18:08:00,
2013-03-06 11:09:00,58.7,24.5,29.74,South,180,10.5,10.5,27,0.00,,,0.00,WUHU216HW,2013-03-06 18:09:00,
2013-03-06 11:10:00,58.7,24.5,29.74,South,180,9.8,10.5,27,0.00,,,0.00,WUHU216HW,2013-03-06 18:10:00,
2013-03-06 11:11:00,58.7,24.5,29.74,South,180,6.3,10.5,27,0.00,,,0.00,WUHU216HW,2013-03-06 18:11:00,
2013-03-06 11:13:00,59.0,24.9,29.74,South,180,8.3,10.5,27,0.00,,,0.00,WUHU216HW,2013-03-06 18:13:00,
2013-03-06 11:14:00,59.2,24.9,29.74,SW,225,8.9,10.5,27,0.00,,,0.00,WUHU216HW,2013-03-06 18:14:00,
2013-03-06 11:15:00,59.4,25.1,29.74,SSW,203,8.3,10.5,27,0.00,,,0.00,WUHU216HW,2013-03-06 18:15:00,
2013-03-06 11:16:00,59.4,25.1,29.74,South,180,9.2,10.5,27,0.00,,,0.00,WUHU216HW,2013-03-06 18:16:00,
2013-03-06 11:18:00,59.4,25.1,29.74,SSW,203,12.1,12.1,27,0.00,,,0.00,WUHU216HW,2013-03-06 18:18:00,
2013-03-06 11:19:00,59.4,25.1,29.74,SSW,203,7.6,12.1,27,0.00,,,0.00,WUHU216HW,2013-03-06 18:19:00,
2013-03-06 11:21:00,59.4,25.1,29.74,SW,225,10.1,12.1,27,0.00,,,0.00,WUHU216HW,2013-03-06 18:21:00,
2013-03-06 11:23:00,59.8,25.4,29.74,South,180,7.8,12.1,27,0.00,,,0.00,WUHU216HW,2013-03-06 18:23:00,
2013-03-06 11:24:00,59.8,25.4,29.73,South,180,4.0,12.1,27,0.00,,,0.00,WUHU216HW,2013-03-06 18:24:00,
2013-03-06 11:26:00,59.9,25.6,29.73,SSW,203,10.1,12.1,27,0.00,,,0.00,WUHU216HW,2013-03-06 18:26:00,
2013-03-06 11:27:00,60.1,24.8,29.73,SW,225,8.5,12.1,26,0.00,,,0.00,WUHU216HW,2013-03-06 18:27:00,
2013-03-06 11:28:00,60.1,24.8,29.73,SSW,203,5.8,11.0,26,0.00,,,0.00,WUHU216HW,2013-03-06 18:28:00,
2013-03-06 11:29:00,60.1,25.8,29.73,SSE,158,8.7,11.0,27,0.00,,,0.00,WUHU216HW,2013-03-06 18:29:00,
2013-03-06 11:31:00,60.1,25.8,29.73,SSW,203,4.0,11.0,27,0.00,,,0.00,WUHU216HW,2013-03-06 18:31:00,
2013-03-06 11:32:00,60.3,25.8,29.73,South,180,5.4,10.3,27,0.00,,,0.00,WUHU216HW,2013-03-06 18:32:00,
2013-03-06 11:33:00,60.5,26.0,29.73,South,180,7.4,10.3,27,0.00,,,0.00,WUHU216HW,2013-03-06 18:33:00,
2013-03-06 11:34:00,60.8,25.4,29.73,SSW,203,4.0,10.3,26,0.00,,,0.00,WUHU216HW,2013-03-06 18:34:00,
2013-03-06 11:36:00,60.8,24.4,29.72,South,180,6.3,8.7,25,0.00,,,0.00,WUHU216HW,2013-03-06 18:36:00,
2013-03-06 11:37:00,61.2,24.7,29.72,SE,135,6.5,8.7,25,0.00,,,0.00,WUHU216HW,2013-03-06 18:37:00,
2013-03-06 11:39:00,61.2,24.7,29.72,SE,135,5.4,8.7,25,0.00,,,0.00,WUHU216HW,2013-03-06 18:39:00,
2013-03-06 11:40:00,61.2,24.7,29.72,SSW,203,5.6,7.8,25,0.00,,,0.00,WUHU216HW,2013-03-06 18:40:00,
2013-03-06 11:41:00,61.2,24.7,29.72,SSE,158,10.3,10.3,25,0.00,,,0.00,WUHU216HW,2013-03-06 18:41:00,
2013-03-06 11:42:00,61.2,24.7,29.72,SSE,158,6.5,10.3,25,0.00,,,0.00,WUHU216HW,2013-03-06 18:42:00,
2013-03-06 11:44:00,61.2,24.7,29.72,SSE,158,9.2,10.3,25,0.00,,,0.00,WUHU216HW,2013-03-06 18:44:00,
2013-03-06 11:45:00,61.2,24.7,29.72,WSW,248,3.6,10.3,25,0.00,,,0.00,WUHU216HW,2013-03-06 18:45:00,
2013-03-06 11:46:00,61.2,24.7,29.72,SE,135,9.4,10.3,25,0.00,,,0.00,WUHU216HW,2013-03-06 18:46:00,
2013-03-06 11:47:00,61.2,24.7,29.72,SSE,158,13.0,13.0,25,0.00,,,0.00,WUHU216HW,2013-03-06 18:47:00,
2013-03-06 11:49:00,61.0,24.6,29.72,South,180,7.4,13.0,25,0.00,,,0.00,WUHU216HW,2013-03-06 18:49:00,
2013-03-06 11:50:00,61.0,24.6,29.72,South,180,7.4,13.0,25,0.00,,,0.00,WUHU216HW,2013-03-06 18:50:00,
2013-03-06 11:51:00,61.0,24.6,29.72,South,180,8.7,13.0,25,0.00,,,0.00,WUHU216HW,2013-03-06 18:51:00,
2013-03-06 11:53:00,60.8,24.4,29.72,SE,135,2.5,13.0,25,0.00,,,0.00,WUHU216HW,2013-03-06 18:53:00,
2013-03-06 11:54:00,61.0,24.6,29.72,SSE,158,1.8,13.0,25,0.00,,,0.00,WUHU216HW,2013-03-06 18:54:00,
2013-03-06 11:55:00,61.0,24.6,29.72,SE,135,1.1,13.0,25,0.00,,,0.00,WUHU216HW,2013-03-06 18:55:00,
2013-03-06 11:56:00,61.2,24.7,29.72,SE,135,4.7,13.0,25,0.00,,,0.00,WUHU216HW,2013-03-06 18:56:00,
2013-03-06 11:58:00,61.4,24.8,29.72,SE,135,1.8,8.7,25,0.00,,,0.00,WUHU216HW,2013-03-06 18:58:00,
2013-03-06 11:59:00,61.6,25.0,29.72,WSW,248,2.7,8.7,25,0.00,,,0.00,WUHU216HW,2013-03-06 18:59:00,
2013-03-06 12:00:00,61.6,25.0,29.72,SSE,158,0.2,8.7,25,0.00,,,0.00,WUHU216HW,2013-03-06 19:00:00,
2013-03-06 12:01:00,61.7,25.1,29.72,SE,135,1.8,6.3,25,0.00,,,0.00,WUHU216HW,2013-03-06 19:01:00,
2013-03-06 12:03:00,61.9,25.3,29.71,ESE,113,4.0,6.3,25,0.00,,,0.00,WUHU216HW,2013-03-06 19:03:00,
2013-03-06 12:04:00,61.9,25.3,29.71,ESE,113,2.5,6.3,25,0.00,,,0.00,WUHU216HW,2013-03-06 19:04:00,
2013-03-06 12:05:00,61.9,25.3,29.71,SE,135,3.4,6.3,25,0.00,,,0.00,WUHU216HW,2013-03-06 19:05:00,
2013-03-06 12:07:00,62.3,25.7,29.71,SE,135,5.8,6.3,25,0.00,,,0.00,WUHU216HW,2013-03-06 19:07:00,
2013-03-06 12:08:00,62.3,26.6,29.71,SE,135,6.5,6.5,26,0.00,,,0.00,WUHU216HW,2013-03-06 19:08:00,
2013-03-06 12:09:00,62.3,25.7,29.71,SE,135,7.6,7.6,25,0.00,,,0.00,WUHU216HW,2013-03-06 19:09:00,
2013-03-06 12:10:00,62.3,25.7,29.71,South,180,9.2,9.2,25,0.00,,,0.00,WUHU216HW,2013-03-06 19:10:00,
2013-03-06 12:12:00,62.1,25.5,29.70,SSE,158,4.0,9.2,25,0.00,,,0.00,WUHU216HW,2013-03-06 19:12:00,
2013-03-06 12:13:00,61.9,25.3,29.70,SSE,158,8.3,9.2,25,0.00,,,0.00,WUHU216HW,2013-03-06 19:13:00,
2013-03-06 12:14:00,61.9,25.3,29.70,SE,135,11.4,11.4,25,0.00,,,0.00,WUHU216HW,2013-03-06 19:14:00,
2013-03-06 12:15:00,61.9,25.3,29.70,SE,135,8.7,11.4,25,0.00,,,0.00,WUHU216HW,2013-03-06 19:15:00,
2013-03-06 12:17:00,61.9,25.3,29.70,South,180,8.3,11.4,25,0.00,,,0.00,WUHU216HW,2013-03-06 19:17:00,
2013-03-06 12:18:00,61.9,25.3,29.70,SSE,158,7.6,11.4,25,0.00,,,0.00,WUHU216HW,2013-03-06 19:18:00,
2013-03-06 12:19:00,62.1,25.5,29.70,SSE,158,9.2,11.4,25,0.00,,,0.00,WUHU216HW,2013-03-06 19:19:00,
2013-03-06 12:21:00,62.3,25.7,29.70,SW,225,0.9,11.4,25,0.00,,,0.00,WUHU216HW,2013-03-06 19:21:00,
2013-03-06 12:22:00,62.6,25.9,29.70,South,180,4.0,11.4,25,0.00,,,0.00,WUHU216HW,2013-03-06 19:22:00,
2013-03-06 12:23:00,63.0,26.2,29.70,SW,225,4.7,11.4,25,0.00,,,0.00,WUHU216HW,2013-03-06 19:23:00,
2013-03-06 12:24:00,63.0,26.2,29.70,SW,225,8.7,9.2,25,0.00,,,0.00,WUHU216HW,2013-03-06 19:24:00,
2013-03-06 12:26:00,63.2,27.4,29.70,WSW,248,6.3,9.2,26,0.00,,,0.00,WUHU216HW,2013-03-06 19:26:00,
2013-03-06 12:27:00,63.7,26.8,29.70,SW,225,9.2,9.2,25,0.00,,,0.00,WUHU216HW,2013-03-06 19:27:00,
2013-03-06 12:28:00,63.7,26.8,29.70,SSW,203,7.2,9.2,25,0.00,,,0.00,WUHU216HW,2013-03-06 19:28:00,
2013-03-06 12:29:00,63.9,27.0,29.70,SSW,203,8.1,9.2,25,0.00,,,0.00,WUHU216HW,2013-03-06 19:29:00,
2013-03-06 12:31:00,63.9,27.0,29.70,SSE,158,11.9,11.9,25,0.00,,,0.00,WUHU216HW,2013-03-06 19:31:00,
2013-03-06 12:33:00,63.9,27.0,29.69,SSE,158,8.5,11.9,25,0.00,,,0.00,WUHU216HW,2013-03-06 19:33:00,
2013-03-06 12:34:00,63.9,27.0,29.69,SSE,158,7.8,11.9,25,0.00,,,0.00,WUHU216HW,2013-03-06 19:34:00,
2013-03-06 12:36:00,63.5,26.7,29.69,South,180,8.5,11.9,25,0.00,,,0.00,WUHU216HW,2013-03-06 19:36:00,
2013-03-06 12:38:00,63.4,26.6,29.69,SE,135,2.9,11.9,25,0.00,,,0.00,WUHU216HW,2013-03-06 19:38:00,
2013-03-06 12:39:00,63.4,26.6,29.69,SSE,158,0.9,11.9,25,0.00,,,0.00,WUHU216HW,2013-03-06 19:39:00,
2013-03-06 12:41:00,63.2,26.4,29.69,SSE,158,6.7,8.5,25,0.00,,,0.00,WUHU216HW,2013-03-06 19:41:00,
2013-03-06 12:43:00,63.4,26.6,29.68,South,180,9.2,9.2,25,0.00,,,0.00,WUHU216HW,2013-03-06 19:43:00,
2013-03-06 12:44:00,63.4,26.6,29.68,South,180,10.7,10.7,25,0.00,,,0.00,WUHU216HW,2013-03-06 19:44:00,
2013-03-06 12:46:00,63.4,26.6,29.68,South,180,6.7,10.7,25,0.00,,,0.00,WUHU216HW,2013-03-06 19:46:00,
2013-03-06 12:48:00,63.4,26.6,29.68,South,180,8.1,10.7,25,0.00,,,0.00,WUHU216HW,2013-03-06 19:48:00,
2013-03-06 12:49:00,63.5,26.7,29.68,SSW,203,6.0,10.7,25,0.00,,,0.00,WUHU216HW,2013-03-06 19:49:00,
2013-03-06 12:51:00,63.9,27.0,29.68,SW,225,6.9,10.7,25,0.00,,,0.00,WUHU216HW,2013-03-06 19:51:00,
2013-03-06 12:53:00,64.1,27.2,29.68,SSW,203,11.2,11.2,25,0.00,,,0.00,WUHU216HW,2013-03-06 19:53:00,
2013-03-06 12:54:00,64.3,27.3,29.68,South,180,11.9,11.9,25,0.00,,,0.00,WUHU216HW,2013-03-06 19:54:00,
2013-03-06 12:55:00,64.4,27.5,29.67,SSW,203,8.3,11.9,25,0.00,,,0.00,WUHU216HW,2013-03-06 19:55:00,
2013-03-06 12:56:00,64.4,27.5,29.67,South,180,9.4,11.9,25,0.00,,,0.00,WUHU216HW,2013-03-06 19:56:00,
2013-03-06 12:58:00,64.4,27.5,29.67,SSE,158,8.1,11.9,25,0.00,,,0.00,WUHU216HW,2013-03-06 19:58:00,
2013-03-06 12:59:00,64.6,27.6,29.68,SSE,158,6.3,11.9,25,0.00,,,0.00,WUHU216HW,2013-03-06 19:59:00,
2013-03-06 13:00:00,64.6,27.6,29.67,SW,225,4.0,11.9,25,0.00,,,0.00,WUHU216HW,2013-03-06 20:00:00,
2013-03-06 13:01:00,64.8,27.7,29.67,SSE,158,7.6,11.9,25,0.00,,,0.00,WUHU216HW,2013-03-06 20:01:00,
2013-03-06 13:03:00,65.0,26.9,29.67,SSW,203,6.3,9.4,24,0.00,,,0.00,WUHU216HW,2013-03-06 20:03:00,
2013-03-06 13:04:00,65.0,26.9,29.67,WSW,248,8.1,9.4,24,0.00,,,0.00,WUHU216HW,2013-03-06 20:04:00,
2013-03-06 13:05:00,65.0,26.9,29.67,SSW,203,6.7,9.4,24,0.00,,,0.00,WUHU216HW,2013-03-06 20:05:00,
2013-03-06 13:06:00,65.2,27.1,29.67,SW,225,7.6,8.5,24,0.00,,,0.00,WUHU216HW,2013-03-06 20:06:00,
2013-03-06 13:08:00,65.2,27.1,29.67,South,180,5.6,8.5,24,0.00,,,0.00,WUHU216HW,2013-03-06 20:08:00,
2013-03-06 13:09:00,65.2,27.1,29.67,South,180,6.3,8.5,24,0.00,,,0.00,WUHU216HW,2013-03-06 20:09:00,
2013-03-06 13:10:00,65.3,27.2,29.67,South,180,8.1,8.5,24,0.00,,,0.00,WUHU216HW,2013-03-06 20:10:00,
2013-03-06 13:12:00,65.5,27.4,29.67,SSW,203,13.2,13.2,24,0.00,,,0.00,WUHU216HW,2013-03-06 20:12:00,
2013-03-06 13:13:00,65.5,27.4,29.67,SSE,158,9.2,13.2,24,0.00,,,0.00,WUHU216HW,2013-03-06 20:13:00,
2013-03-06 13:14:00,65.3,27.2,29.67,SSE,158,8.3,13.2,24,0.00,,,0.00,WUHU216HW,2013-03-06 20:14:00,
2013-03-06 13:15:00,65.2,27.1,29.66,SSE,158,5.4,13.2,24,0.00,,,0.00,WUHU216HW,2013-03-06 20:15:00,
2013-03-06 13:17:00,65.2,27.1,29.66,South,180,14.5,14.5,24,0.00,,,0.00,WUHU216HW,2013-03-06 20:17:00,
2013-03-06 13:18:00,65.2,27.1,29.66,SSW,203,8.9,14.5,24,0.00,,,0.00,WUHU216HW,2013-03-06 20:18:00,
2013-03-06 13:19:00,65.2,27.1,29.66,South,180,9.8,14.5,24,0.00,,,0.00,WUHU216HW,2013-03-06 20:19:00,
2013-03-06 13:21:00,65.2,27.1,29.66,SSW,203,9.8,14.5,24,0.00,,,0.00,WUHU216HW,2013-03-06 20:21:00,
2013-03-06 13:22:00,65.2,27.1,29.66,SSW,203,11.2,14.5,24,0.00,,,0.00,WUHU216HW,2013-03-06 20:22:00,
2013-03-06 13:23:00,65.2,27.1,29.66,South,180,8.7,14.5,24,0.00,,,0.00,WUHU216HW,2013-03-06 20:23:00,
2013-03-06 13:24:00,65.2,27.1,29.66,SSW,203,7.6,14.5,24,0.00,,,0.00,WUHU216HW,2013-03-06 20:24:00,
2013-03-06 13:26:00,65.2,27.1,29.65,SSE,158,4.5,14.5,24,0.00,,,0.00,WUHU216HW,2013-03-06 20:26:00,
2013-03-06 13:27:00,65.2,27.1,29.65,South,180,11.6,12.8,24,0.00,,,0.00,WUHU216HW,2013-03-06 20:27:00,
2013-03-06 13:29:00,65.2,27.1,29.65,South,180,7.4,12.8,24,0.00,,,0.00,WUHU216HW,2013-03-06 20:29:00,
2013-03-06 13:31:00,65.5,27.4,29.65,SSW,203,8.9,11.6,24,0.00,,,0.00,WUHU216HW,2013-03-06 20:31:00,
2013-03-06 13:32:00,65.7,27.6,29.65,South,180,8.7,11.6,24,0.00,,,0.00,WUHU216HW,2013-03-06 20:32:00,
2013-03-06 13:34:00,65.9,26.6,29.65,SSE,158,8.9,12.3,23,0.00,,,0.00,WUHU216HW,2013-03-06 20:34:00,
2013-03-06 13:37:00,65.9,26.6,29.65,SSE,158,6.7,12.3,23,0.00,,,0.00,WUHU216HW,2013-03-06 20:37:00,
2013-03-06 13:39:00,65.7,26.6,29.65,SE,135,2.0,12.3,23,0.00,,,0.00,WUHU216HW,2013-03-06 20:39:00,
2013-03-06 13:40:00,65.7,26.6,29.65,SE,135,2.0,12.3,23,0.00,,,0.00,WUHU216HW,2013-03-06 20:40:00,
2013-03-06 13:42:00,65.5,26.4,29.65,South,180,14.3,14.3,23,0.00,,,0.00,WUHU216HW,2013-03-06 20:42:00,
2013-03-06 13:44:00,65.5,26.4,29.64,South,180,11.9,14.3,23,0.00,,,0.00,WUHU216HW,2013-03-06 20:44:00,
2013-03-06 13:45:00,65.5,26.4,29.64,South,180,11.9,14.3,23,0.00,,,0.00,WUHU216HW,2013-03-06 20:45:00,
2013-03-06 13:47:00,65.3,26.2,29.65,South,180,8.3,14.3,23,0.00,,,0.00,WUHU216HW,2013-03-06 20:47:00,
2013-03-06 13:49:00,65.2,26.1,29.64,South,180,7.6,14.3,23,0.00,,,0.00,WUHU216HW,2013-03-06 20:49:00,
2013-03-06 13:50:00,65.2,26.1,29.64,South,180,7.6,14.3,23,0.00,,,0.00,WUHU216HW,2013-03-06 20:50:00,
2013-03-06 13:52:00,65.3,26.2,29.64,SSW,203,11.4,13.4,23,0.00,,,0.00,WUHU216HW,2013-03-06 20:52:00,
2013-03-06 13:54:00,65.3,26.2,29.64,South,180,9.8,13.4,23,0.00,,,0.00,WUHU216HW,2013-03-06 20:54:00,
2013-03-06 13:55:00,65.3,26.2,29.64,South,180,9.8,13.4,23,0.00,,,0.00,WUHU216HW,2013-03-06 20:55:00,
2013-03-06 13:57:00,65.5,26.4,29.64,SW,225,11.4,13.4,23,0.00,,,0.00,WUHU216HW,2013-03-06 20:57:00,
2013-03-06 13:58:00,65.5,26.4,29.64,South,180,11.4,13.4,23,0.00,,,0.00,WUHU216HW,2013-03-06 20:58:00,
2013-03-06 13:59:00,65.5,26.4,29.64,South,180,7.8,13.4,23,0.00,,,0.00,WUHU216HW,2013-03-06 20:59:00,
2013-03-06 14:00:00,65.5,26.4,29.64,SSW,203,7.6,13.4,23,0.00,,,0.00,WUHU216HW,2013-03-06 21:00:00,
2013-03-06 14:02:00,65.5,26.4,29.64,SSE,158,9.2,13.4,23,0.00,,,0.00,WUHU216HW,2013-03-06 21:02:00,
2013-03-06 14:03:00,65.3,26.2,29.64,SSE,158,9.2,12.5,23,0.00,,,0.00,WUHU216HW,2013-03-06 21:03:00,
2013-03-06 14:04:00,65.3,26.2,29.64,South,180,10.3,12.5,23,0.00,,,0.00,WUHU216HW,2013-03-06 21:04:00,
2013-03-06 14:05:00,65.2,26.1,29.64,SSW,203,9.4,12.5,23,0.00,,,0.00,WUHU216HW,2013-03-06 21:05:00,
2013-03-06 14:07:00,65.3,26.2,29.64,SSE,158,11.4,11.4,23,0.00,,,0.00,WUHU216HW,2013-03-06 21:07:00,
2013-03-06 14:08:00,65.3,26.2,29.64,SSE,158,11.0,11.4,23,0.00,,,0.00,WUHU216HW,2013-03-06 21:08:00,
2013-03-06 14:10:00,65.5,26.4,29.64,SSE,158,10.5,11.4,23,0.00,,,0.00,WUHU216HW,2013-03-06 21:10:00,
2013-03-06 14:12:00,65.5,26.4,29.64,SSE,158,10.1,11.4,23,0.00,,,0.00,WUHU216HW,2013-03-06 21:12:00,
2013-03-06 14:13:00,65.5,26.4,29.63,South,180,12.3,12.3,23,0.00,,,0.00,WUHU216HW,2013-03-06 21:13:00,
2013-03-06 14:15:00,65.5,26.4,29.63,South,180,8.3,12.3,23,0.00,,,0.00,WUHU216HW,2013-03-06 21:15:00,
2013-03-06 14:18:00,65.5,26.4,29.63,South,180,12.8,12.8,23,0.00,,,0.00,WUHU216HW,2013-03-06 21:18:00,
2013-03-06 14:20:00,65.7,26.6,29.63,SSW,203,13.6,13.6,23,0.00,,,0.00,WUHU216HW,2013-03-06 21:20:00,
2013-03-06 14:21:00,65.7,26.6,29.63,SSW,203,13.6,13.6,23,0.00,,,0.00,WUHU216HW,2013-03-06 21:21:00,
2013-03-06 14:23:00,65.9,26.6,29.63,SSW,203,9.2,13.6,23,0.00,,,0.00,WUHU216HW,2013-03-06 21:23:00,
2013-03-06 14:25:00,65.9,26.6,29.63,SW,225,11.4,13.6,23,0.00,,,0.00,WUHU216HW,2013-03-06 21:25:00,
2013-03-06 14:26:00,65.9,26.6,29.63,SW,225,11.4,13.6,23,0.00,,,0.00,WUHU216HW,2013-03-06 21:26:00,
2013-03-06 14:28:00,66.2,25.9,29.63,SW,225,7.8,13.6,22,0.00,,,0.00,WUHU216HW,2013-03-06 21:28:00,
2013-03-06 14:29:00,66.2,25.9,29.63,SW,225,7.8,13.6,22,0.00,,,0.00,WUHU216HW,2013-03-06 21:29:00,
2013-03-06 14:30:00,66.6,27.3,29.63,South,180,12.3,15.0,23,0.00,,,0.00,WUHU216HW,2013-03-06 21:30:00,
2013-03-06 14:31:00,66.6,27.3,29.63,South,180,12.3,15.0,23,0.00,,,0.00,WUHU216HW,2013-03-06 21:31:00,
2013-03-06 14:33:00,66.8,26.5,29.63,SSW,203,9.8,15.0,22,0.00,,,0.00,WUHU216HW,2013-03-06 21:33:00,
2013-03-06 14:34:00,66.8,26.5,29.63,SSW,203,9.8,15.0,22,0.00,,,0.00,WUHU216HW,2013-03-06 21:34:00,
2013-03-06 14:35:00,66.8,26.5,29.63,South,180,4.0,15.0,22,0.00,,,0.00,WUHU216HW,2013-03-06 21:35:00,
2013-03-06 14:36:00,66.8,26.5,29.63,South,180,4.0,15.0,22,0.00,,,0.00,WUHU216HW,2013-03-06 21:36:00,
2013-03-06 14:38:00,67.0,26.6,29.63,SSE,158,12.1,15.0,22,0.00,,,0.00,WUHU216HW,2013-03-06 21:38:00,
2013-03-06 14:39:00,67.0,26.6,29.63,SSE,158,12.1,12.3,22,0.00,,,0.00,WUHU216HW,2013-03-06 21:39:00,
2013-03-06 14:40:00,67.0,26.6,29.63,South,180,12.8,12.8,22,0.00,,,0.00,WUHU216HW,2013-03-06 21:40:00,
2013-03-06 14:41:00,67.0,26.6,29.63,South,180,12.8,12.8,22,0.00,,,0.00,WUHU216HW,2013-03-06 21:41:00,
2013-03-06 14:44:00,67.0,26.6,29.63,SSW,203,6.3,12.8,22,0.00,,,0.00,WUHU216HW,2013-03-06 21:44:00,
2013-03-06 14:45:00,67.1,26.7,29.63,SSW,203,6.9,12.8,22,0.00,,,0.00,WUHU216HW,2013-03-06 21:45:00,
2013-03-06 14:46:00,67.1,26.7,29.63,SSW,203,6.9,12.8,22,0.00,,,0.00,WUHU216HW,2013-03-06 21:46:00,
2013-03-06 14:49:00,67.1,26.7,29.63,SSW,203,6.5,12.8,22,0.00,,,0.00,WUHU216HW,2013-03-06 21:49:00,
2013-03-06 14:51:00,67.3,26.9,29.62,South,180,10.5,11.0,22,0.00,,,0.00,WUHU216HW,2013-03-06 21:51:00,
2013-03-06 14:54:00,67.1,26.7,29.62,SSE,158,10.5,11.0,22,0.00,,,0.00,WUHU216HW,2013-03-06 21:54:00,
2013-03-06 14:55:00,67.1,25.7,29.62,South,180,9.8,11.0,21,0.00,,,0.00,WUHU216HW,2013-03-06 21:55:00,
2013-03-06 14:56:00,67.1,26.7,29.62,South,180,9.8,11.0,22,0.00,,,0.00,WUHU216HW,2013-03-06 21:56:00,
2013-03-06 14:59:00,66.8,26.5,29.62,SSW,203,13.9,13.9,22,0.00,,,0.00,WUHU216HW,2013-03-06 21:59:00,
2013-03-06 15:00:00,67.0,26.6,29.62,SSW,203,9.2,13.9,22,0.00,,,0.00,WUHU216HW,2013-03-06 22:00:00,
2013-03-06 15:01:00,66.8,26.5,29.62,South,180,10.5,13.9,22,0.00,,,0.00,WUHU216HW,2013-03-06 22:01:00,
2013-03-06 15:04:00,66.8,26.5,29.62,South,180,11.6,13.9,22,0.00,,,0.00,WUHU216HW,2013-03-06 22:04:00,
2013-03-06 15:05:00,66.8,26.5,29.62,South,180,11.4,13.9,22,0.00,,,0.00,WUHU216HW,2013-03-06 22:05:00,
2013-03-06 15:06:00,66.6,26.3,29.62,South,180,10.5,13.9,22,0.00,,,0.00,WUHU216HW,2013-03-06 22:06:00,
2013-03-06 15:10:00,66.6,26.3,29.62,SE,135,8.1,13.9,22,0.00,,,0.00,WUHU216HW,2013-03-06 22:10:00,
2013-03-06 15:11:00,66.6,26.3,29.62,South,180,7.6,13.9,22,0.00,,,0.00,WUHU216HW,2013-03-06 22:11:00,
2013-03-06 15:12:00,66.6,26.3,29.62,South,180,7.6,13.9,22,0.00,,,0.00,WUHU216HW,2013-03-06 22:12:00,
2013-03-06 15:15:00,66.4,26.1,29.62,SSW,203,13.6,13.9,22,0.00,,,0.00,WUHU216HW,2013-03-06 22:15:00,
2013-03-06 15:16:00,66.4,26.1,29.62,SSW,203,11.4,13.9,22,0.00,,,0.00,WUHU216HW,2013-03-06 22:16:00,
2013-03-06 15:17:00,66.4,26.1,29.62,SSW,203,11.4,13.9,22,0.00,,,0.00,WUHU216HW,2013-03-06 22:17:00,
2013-03-06 15:20:00,66.4,26.1,29.62,SE,135,15.0,15.0,22,0.00,,,0.00,WUHU216HW,2013-03-06 22:20:00,
2013-03-06 15:21:00,66.4,26.1,29.62,SSE,158,10.7,15.0,22,0.00,,,0.00,WUHU216HW,2013-03-06 22:21:00,
2013-03-06 15:22:00,66.4,26.1,29.62,SSE,158,10.7,15.0,22,0.00,,,0.00,WUHU216HW,2013-03-06 22:22:00,
2013-03-06 15:25:00,66.2,25.9,29.61,SSE,158,15.0,15.0,22,0.00,,,0.00,WUHU216HW,2013-03-06 22:25:00,
2013-03-06 15:27:00,66.2,25.9,29.61,South,180,9.8,15.0,22,0.00,,,0.00,WUHU216HW,2013-03-06 22:27:00,
2013-03-06 15:30:00,66.1,25.8,29.62,SSW,203,16.3,16.3,22,0.00,,,0.00,WUHU216HW,2013-03-06 22:30:00,
2013-03-06 15:32:00,66.2,25.9,29.61,SSE,158,11.6,16.3,22,0.00,,,0.00,WUHU216HW,2013-03-06 22:32:00,
2013-03-06 15:35:00,66.2,25.9,29.61,South,180,12.1,16.3,22,0.00,,,0.00,WUHU216HW,2013-03-06 22:35:00,
2013-03-06 15:37:00,66.2,25.9,29.61,South,180,11.9,16.3,22,0.00,,,0.00,WUHU216HW,2013-03-06 22:37:00,
2013-03-06 15:40:00,66.1,25.8,29.61,South,180,16.6,16.6,22,0.00,,,0.00,WUHU216HW,2013-03-06 22:40:00,
2013-03-06 15:42:00,66.1,25.8,29.61,SSE,158,9.6,16.6,22,0.00,,,0.00,WUHU216HW,2013-03-06 22:42:00,
2013-03-06 15:43:00,66.1,25.8,29.61,South,180,10.3,16.6,22,0.00,,,0.00,WUHU216HW,2013-03-06 22:43:00,
2013-03-06 15:45:00,66.1,25.8,29.61,SSW,203,11.9,16.6,22,0.00,,,0.00,WUHU216HW,2013-03-06 22:45:00,
2013-03-06 15:47:00,66.2,25.9,29.61,SSW,203,11.0,16.6,22,0.00,,,0.00,WUHU216HW,2013-03-06 22:47:00,
2013-03-06 15:48:00,66.2,25.9,29.61,South,180,8.5,16.6,22,0.00,,,0.00,WUHU216HW,2013-03-06 22:48:00,
2013-03-06 15:50:00,66.2,25.9,29.61,South,180,9.8,12.8,22,0.00,,,0.00,WUHU216HW,2013-03-06 22:50:00,
2013-03-06 15:52:00,66.4,26.1,29.60,South,180,10.5,12.8,22,0.00,,,0.00,WUHU216HW,2013-03-06 22:52:00,
2013-03-06 15:53:00,66.6,26.3,29.61,South,180,7.8,12.3,22,0.00,,,0.00,WUHU216HW,2013-03-06 22:53:00,
2013-03-06 15:55:00,66.6,26.3,29.60,SSE,158,9.6,12.3,22,0.00,,,0.00,WUHU216HW,2013-03-06 22:55:00,
2013-03-06 15:57:00,66.6,26.3,29.60,South,180,8.7,12.3,22,0.00,,,0.00,WUHU216HW,2013-03-06 22:57:00,
2013-03-06 15:59:00,66.4,26.1,29.60,South,180,12.5,15.0,22,0.00,,,0.00,WUHU216HW,2013-03-06 22:59:00,
2013-03-06 16:00:00,66.4,26.1,29.60,South,180,8.7,15.0,22,0.00,,,0.00,WUHU216HW,2013-03-06 23:00:00,
2013-03-06 16:02:00,66.4,26.1,29.60,SSW,203,11.9,15.0,22,0.00,,,0.00,WUHU216HW,2013-03-06 23:02:00,
2013-03-06 16:04:00,66.2,25.9,29.60,South,180,11.0,15.0,22,0.00,,,0.00,WUHU216HW,2013-03-06 23:04:00,
2013-03-06 16:05:00,66.2,25.9,29.60,South,180,9.2,15.0,22,0.00,,,0.00,WUHU216HW,2013-03-06 23:05:00,
2013-03-06 16:07:00,66.2,25.9,29.60,SSE,158,12.1,15.0,22,0.00,,,0.00,WUHU216HW,2013-03-06 23:07:00,
2013-03-06 16:09:00,66.2,25.9,29.59,SSW,203,11.0,13.0,22,0.00,,,0.00,WUHU216HW,2013-03-06 23:09:00,
2013-03-06 16:10:00,66.2,25.9,29.59,SSW,203,11.4,13.0,22,0.00,,,0.00,WUHU216HW,2013-03-06 23:10:00,
2013-03-06 16:12:00,66.2,25.9,29.60,South,180,9.8,13.0,22,0.00,,,0.00,WUHU216HW,2013-03-06 23:12:00,
2013-03-06 16:14:00,66.2,25.9,29.59,South,180,7.4,12.1,22,0.00,,,0.00,WUHU216HW,2013-03-06 23:14:00,
2013-03-06 16:15:00,66.2,25.9,29.59,South,180,8.3,12.1,22,0.00,,,0.00,WUHU216HW,2013-03-06 23:15:00,
2013-03-06 16:17:00,66.4,26.1,29.59,SE,135,8.9,11.4,22,0.00,,,0.00,WUHU216HW,2013-03-06 23:17:00,
2013-03-06 16:19:00,66.4,26.1,29.59,South,180,5.6,11.4,22,0.00,,,0.00,WUHU216HW,2013-03-06 23:19:00,
2013-03-06 16:21:00,66.4,26.1,29.59,South,180,7.6,11.4,22,0.00,,,0.00,WUHU216HW,2013-03-06 23:21:00,
2013-03-06 16:22:00,66.6,26.3,29.59,South,180,9.2,9.4,22,0.00,,,0.00,WUHU216HW,2013-03-06 23:22:00,
2013-03-06 16:24:00,66.6,25.3,29.59,South,180,8.9,12.5,21,0.00,,,0.00,WUHU216HW,2013-03-06 23:24:00,
2013-03-06 16:26:00,66.6,26.3,29.59,South,180,9.6,12.5,22,0.00,,,0.00,WUHU216HW,2013-03-06 23:26:00,
2013-03-06 16:28:00,66.8,26.5,29.59,SSW,203,7.6,12.5,22,0.00,,,0.00,WUHU216HW,2013-03-06 23:28:00,
2013-03-06 16:29:00,66.8,26.5,29.59,South,180,7.4,12.5,22,0.00,,,0.00,WUHU216HW,2013-03-06 23:29:00,
2013-03-06 16:31:00,67.0,26.6,29.59,SSE,158,7.6,12.5,22,0.00,,,0.00,WUHU216HW,2013-03-06 23:31:00,
2013-03-06 16:33:00,67.0,26.6,29.59,SE,135,9.6,13.0,22,0.00,,,0.00,WUHU216HW,2013-03-06 23:33:00,
2013-03-06 16:34:00,67.1,25.7,29.58,SSW,203,8.3,13.0,21,0.00,,,0.00,WUHU216HW,2013-03-06 23:34:00,
2013-03-06 16:36:00,67.1,25.7,29.59,South,180,12.5,13.0,21,0.00,,,0.00,WUHU216HW,2013-03-06 23:36:00,
2013-03-06 16:38:00,67.1,25.7,29.59,South,180,11.6,13.0,21,0.00,,,0.00,WUHU216HW,2013-03-06 23:38:00,
2013-03-06 16:40:00,67.0,25.6,29.59,SE,135,12.1,13.0,21,0.00,,,0.00,WUHU216HW,2013-03-06 23:40:00,
2013-03-06 16:41:00,67.0,25.6,29.58,SSE,158,8.9,13.0,21,0.00,,,0.00,WUHU216HW,2013-03-06 23:41:00,
2013-03-06 16:43:00,66.8,25.5,29.59,South,180,9.6,12.5,21,0.00,,,0.00,WUHU216HW,2013-03-06 23:43:00,
2013-03-06 16:45:00,66.6,25.3,29.59,South,180,7.8,12.5,21,0.00,,,0.00,WUHU216HW,2013-03-06 23:45:00,
2013-03-06 16:46:00,66.6,25.3,29.58,South,180,7.6,12.1,21,0.00,,,0.00,WUHU216HW,2013-03-06 23:46:00,
2013-03-06 16:48:00,66.6,25.3,29.58,SSE,158,8.1,12.1,21,0.00,,,0.00,WUHU216HW,2013-03-06 23:48:00,
2013-03-06 16:50:00,66.6,25.3,29.58,SSE,158,8.1,12.1,21,0.00,,,0.00,WUHU216HW,2013-03-06 23:50:00,
2013-03-06 16:51:00,66.8,25.5,29.58,SSE,158,8.3,12.1,21,0.00,,,0.00,WUHU216HW,2013-03-06 23:51:00,
2013-03-06 16:53:00,66.8,25.5,29.58,SSE,158,4.7,12.1,21,0.00,,,0.00,WUHU216HW,2013-03-06 23:53:00,
2013-03-06 16:55:00,67.0,25.6,29.58,SSE,158,5.8,10.1,21,0.00,,,0.00,WUHU216HW,2013-03-06 23:55:00,
2013-03-06 16:56:00,67.0,25.6,29.58,SSE,158,6.3,8.3,21,0.00,,,0.00,WUHU216HW,2013-03-06 23:56:00,
2013-03-06 16:58:00,67.1,25.7,29.58,SSE,158,4.7,8.3,21,0.00,,,0.00,WUHU216HW,2013-03-06 23:58:00,
2013-03-06 17:00:00,67.1,25.7,29.58,SSE,158,6.3,8.3,21,0.00,,,0.00,WUHU216HW,2013-03-07 00:00:00,
2013-03-06 17:01:00,67.1,25.7,29.58,South,180,5.6,8.3,21,0.00,,,0.00,WUHU216HW,2013-03-07 00:01:00,
2013-03-06 17:03:00,67.3,24.9,29.58,SSE,158,8.3,8.5,20,0.00,,,0.00,WUHU216HW,2013-03-07 00:03:00,
2013-03-06 17:05:00,67.3,23.3,29.57,SSE,158,8.5,10.7,19,0.00,,,0.00,WUHU216HW,2013-03-07 00:05:00,
2013-03-06 17:06:00,67.3,23.3,29.58,SSE,158,11.9,11.9,19,0.00,,,0.00,WUHU216HW,2013-03-07 00:06:00,
2013-03-06 17:07:00,67.3,23.3,29.58,SSE,158,11.9,11.9,19,0.00,,,0.00,WUHU216HW,2013-03-07 00:07:00,
2013-03-06 17:08:00,67.3,24.9,29.58,SSE,158,8.5,11.9,20,0.00,,,0.00,WUHU216HW,2013-03-07 00:08:00,
2013-03-06 17:10:00,67.3,24.9,29.58,SSE,158,6.5,11.9,20,0.00,,,0.00,WUHU216HW,2013-03-07 00:10:00,
2013-03-06 17:11:00,67.1,24.8,29.58,SSE,158,9.6,11.9,20,0.00,,,0.00,WUHU216HW,2013-03-07 00:11:00,
2013-03-06 17:12:00,67.1,24.8,29.58,SSE,158,9.6,11.9,20,0.00,,,0.00,WUHU216HW,2013-03-07 00:12:00,
2013-03-06 17:13:00,67.1,24.8,29.58,South,180,7.2,11.9,20,0.00,,,0.00,WUHU216HW,2013-03-07 00:13:00,
2013-03-06 17:15:00,67.1,24.8,29.58,SSE,158,7.8,11.9,20,0.00,,,0.00,WUHU216HW,2013-03-07 00:15:00,
2013-03-06 17:17:00,67.1,24.8,29.58,SSE,158,5.8,9.6,20,0.00,,,0.00,WUHU216HW,2013-03-07 00:17:00,
2013-03-06 17:18:00,67.1,25.7,29.58,South,180,4.7,9.6,21,0.00,,,0.00,WUHU216HW,2013-03-07 00:18:00,
2013-03-06 17:20:00,67.0,25.6,29.58,SSW,203,5.6,9.6,21,0.00,,,0.00,WUHU216HW,2013-03-07 00:20:00,
2013-03-06 17:22:00,67.0,24.6,29.58,South,180,7.2,9.4,20,0.00,,,0.00,WUHU216HW,2013-03-07 00:22:00,
2013-03-06 17:23:00,67.0,23.1,29.58,South,180,9.8,10.1,19,0.00,,,0.00,WUHU216HW,2013-03-07 00:23:00,
2013-03-06 17:25:00,67.0,23.1,29.58,South,180,8.9,10.1,19,0.00,,,0.00,WUHU216HW,2013-03-07 00:25:00,
2013-03-06 17:27:00,66.8,24.4,29.58,SSE,158,6.3,10.1,20,0.00,,,0.00,WUHU216HW,2013-03-07 00:27:00,
2013-03-06 17:29:00,66.8,22.9,29.58,South,180,6.5,10.1,19,0.00,,,0.00,WUHU216HW,2013-03-07 00:29:00,
2013-03-06 17:30:00,66.8,22.9,29.57,SSE,158,7.6,10.1,19,0.00,,,0.00,WUHU216HW,2013-03-07 00:30:00,
2013-03-06 17:32:00,66.6,22.7,29.58,SSE,158,8.5,9.8,19,0.00,,,0.00,WUHU216HW,2013-03-07 00:32:00,
2013-03-06 17:34:00,66.6,22.7,29.58,South,180,7.2,8.9,19,0.00,,,0.00,WUHU216HW,2013-03-07 00:34:00,
2013-03-06 17:35:00,66.6,22.7,29.58,SSE,158,6.3,8.5,19,0.00,,,0.00,WUHU216HW,2013-03-07 00:35:00,
2013-03-06 17:37:00,66.6,22.7,29.58,SSE,158,5.6,8.5,19,0.00,,,0.00,WUHU216HW,2013-03-07 00:37:00,
2013-03-06 17:39:00,66.6,22.7,29.58,SSE,158,6.9,8.5,19,0.00,,,0.00,WUHU216HW,2013-03-07 00:39:00,
2013-03-06 17:40:00,66.6,22.7,29.58,South,180,4.7,8.5,19,0.00,,,0.00,WUHU216HW,2013-03-07 00:40:00,
2013-03-06 17:42:00,66.4,22.5,29.58,SSE,158,4.5,7.2,19,0.00,,,0.00,WUHU216HW,2013-03-07 00:42:00,
2013-03-06 17:44:00,66.4,22.5,29.58,South,180,4.5,7.2,19,0.00,,,0.00,WUHU216HW,2013-03-07 00:44:00,
2013-03-06 17:45:00,66.4,22.5,29.58,SSE,158,4.7,7.2,19,0.00,,,0.00,WUHU216HW,2013-03-07 00:45:00,
2013-03-06 17:47:00,66.2,22.3,29.58,South,180,4.5,6.9,19,0.00,,,0.00,WUHU216HW,2013-03-07 00:47:00,
2013-03-06 17:48:00,66.4,22.5,29.58,South,180,4.5,6.9,19,0.00,,,0.00,WUHU216HW,2013-03-07 00:48:00,
2013-03-06 17:49:00,66.2,23.9,29.58,South,180,3.8,6.9,20,0.00,,,0.00,WUHU216HW,2013-03-07 00:49:00,
2013-03-06 17:50:00,66.2,23.9,29.58,South,180,2.5,6.9,20,0.00,,,0.00,WUHU216HW,2013-03-07 00:50:00,
2013-03-06 17:52:00,66.2,22.3,29.58,SSE,158,4.0,5.4,19,0.00,,,0.00,WUHU216HW,2013-03-07 00:52:00,
2013-03-06 17:53:00,66.2,23.9,29.58,SSE,158,3.8,5.1,20,0.00,,,0.00,WUHU216HW,2013-03-07 00:53:00,
2013-03-06 17:54:00,66.2,23.9,29.58,SSW,203,4.0,5.1,20,0.00,,,0.00,WUHU216HW,2013-03-07 00:54:00,
2013-03-06 17:55:00,66.1,22.2,29.58,SSE,158,5.1,5.1,19,0.00,,,0.00,WUHU216HW,2013-03-07 00:55:00,
2013-03-06 17:57:00,66.1,24.9,29.58,SSE,158,6.3,6.3,21,0.00,,,0.00,WUHU216HW,2013-03-07 00:57:00,
2013-03-06 17:58:00,65.9,23.7,29.58,South,180,4.0,6.3,20,0.00,,,0.00,WUHU216HW,2013-03-07 00:58:00,
2013-03-06 17:59:00,65.9,23.7,29.58,SSE,158,4.0,6.3,20,0.00,,,0.00,WUHU216HW,2013-03-07 00:59:00,
2013-03-06 18:00:00,65.9,23.7,29.58,SSE,158,3.8,6.3,20,0.00,,,0.00,WUHU216HW,2013-03-07 01:00:00,
2013-03-06 18:03:00,65.9,24.7,29.58,South,180,4.0,6.3,21,0.00,,,0.00,WUHU216HW,2013-03-07 01:03:00,
2013-03-06 18:05:00,65.7,24.5,29.58,SSE,158,4.0,6.3,21,0.00,,,0.00,WUHU216HW,2013-03-07 01:05:00,
2013-03-06 18:06:00,65.7,24.5,29.58,SSE,158,4.0,6.3,21,0.00,,,0.00,WUHU216HW,2013-03-07 01:06:00,
2013-03-06 18:08:00,65.5,24.4,29.58,South,180,4.3,7.4,21,0.00,,,0.00,WUHU216HW,2013-03-07 01:08:00,
2013-03-06 18:11:00,65.5,24.4,29.58,SSE,158,5.8,7.4,21,0.00,,,0.00,WUHU216HW,2013-03-07 01:11:00,
2013-03-06 18:13:00,65.3,24.2,29.58,South,180,8.5,8.5,21,0.00,,,0.00,WUHU216HW,2013-03-07 01:13:00,
2013-03-06 18:16:00,65.2,24.0,29.58,South,180,7.4,8.5,21,0.00,,,0.00,WUHU216HW,2013-03-07 01:16:00,
2013-03-06 18:18:00,65.2,25.1,29.58,SSW,203,6.0,8.5,22,0.00,,,0.00,WUHU216HW,2013-03-07 01:18:00,
2013-03-06 18:19:00,65.2,25.1,29.58,SSW,203,6.0,8.5,22,0.00,,,0.00,WUHU216HW,2013-03-07 01:19:00,
2013-03-06 18:21:00,65.0,24.9,29.59,South,180,4.7,8.5,22,0.00,,,0.00,WUHU216HW,2013-03-07 01:21:00,
2013-03-06 18:23:00,64.8,24.8,29.59,SSE,158,5.4,7.4,22,0.00,,,0.00,WUHU216HW,2013-03-07 01:23:00,
2013-03-06 18:24:00,64.8,24.8,29.59,SSE,158,5.4,7.4,22,0.00,,,0.00,WUHU216HW,2013-03-07 01:24:00,
2013-03-06 18:26:00,64.8,24.8,29.58,SSE,158,7.2,7.2,22,0.00,,,0.00,WUHU216HW,2013-03-07 01:26:00,
2013-03-06 18:28:00,64.4,24.5,29.58,South,180,7.6,7.6,22,0.00,,,0.00,WUHU216HW,2013-03-07 01:28:00,
2013-03-06 18:29:00,64.4,24.5,29.58,South,180,7.6,7.6,22,0.00,,,0.00,WUHU216HW,2013-03-07 01:29:00,
2013-03-06 18:31:00,64.4,24.5,29.59,South,180,4.0,8.1,22,0.00,,,0.00,WUHU216HW,2013-03-07 01:31:00,
2013-03-06 18:33:00,64.3,25.3,29.58,South,180,5.4,8.1,23,0.00,,,0.00,WUHU216HW,2013-03-07 01:33:00,
2013-03-06 18:34:00,64.3,25.3,29.58,South,180,5.4,8.1,23,0.00,,,0.00,WUHU216HW,2013-03-07 01:34:00,
2013-03-06 18:36:00,64.1,25.2,29.59,SSW,203,6.9,8.1,23,0.00,,,0.00,WUHU216HW,2013-03-07 01:36:00,
2013-03-06 18:38:00,63.9,25.0,29.59,SSW,203,5.6,8.1,23,0.00,,,0.00,WUHU216HW,2013-03-07 01:38:00,
2013-03-06 18:39:00,63.9,25.0,29.59,SSW,203,5.6,8.1,23,0.00,,,0.00,WUHU216HW,2013-03-07 01:39:00,
2013-03-06 18:41:00,63.7,24.8,29.59,SSW,203,5.4,6.9,23,0.00,,,0.00,WUHU216HW,2013-03-07 01:41:00,
2013-03-06 18:43:00,63.7,24.8,29.59,SSW,203,3.8,6.9,23,0.00,,,0.00,WUHU216HW,2013-03-07 01:43:00,
2013-03-06 18:44:00,63.7,24.8,29.59,SSW,203,3.8,6.9,23,0.00,,,0.00,WUHU216HW,2013-03-07 01:44:00,
2013-03-06 18:46:00,63.5,24.8,29.59,SSW,203,5.6,6.5,23,0.00,,,0.00,WUHU216HW,2013-03-07 01:46:00,
2013-03-06 18:48:00,63.5,24.8,29.59,SSW,203,2.5,6.5,23,0.00,,,0.00,WUHU216HW,2013-03-07 01:48:00,
2013-03-06 18:49:00,63.5,24.8,29.59,SSW,203,2.5,6.5,23,0.00,,,0.00,WUHU216HW,2013-03-07 01:49:00,
2013-03-06 18:51:00,63.5,24.8,29.59,South,180,3.4,5.6,23,0.00,,,0.00,WUHU216HW,2013-03-07 01:51:00,
2013-03-06 18:52:00,63.4,24.6,29.59,SSW,203,4.7,5.6,23,0.00,,,0.00,WUHU216HW,2013-03-07 01:52:00,
2013-03-06 18:53:00,63.4,24.6,29.59,SSW,203,5.1,6.3,23,0.00,,,0.00,WUHU216HW,2013-03-07 01:53:00,
2013-03-06 18:54:00,63.4,24.6,29.59,SSW,203,5.1,6.3,23,0.00,,,0.00,WUHU216HW,2013-03-07 01:54:00,
2013-03-06 18:56:00,63.4,24.6,29.59,SW,225,3.4,6.3,23,0.00,,,0.00,WUHU216HW,2013-03-07 01:56:00,
2013-03-06 18:57:00,63.2,24.4,29.59,SSW,203,3.8,6.3,23,0.00,,,0.00,WUHU216HW,2013-03-07 01:57:00,
2013-03-06 18:59:00,63.2,24.4,29.59,South,180,3.4,6.3,23,0.00,,,0.00,WUHU216HW,2013-03-07 01:59:00,
2013-03-06 19:01:00,63.0,24.3,29.59,SSW,203,2.0,6.3,23,0.00,,,0.00,WUHU216HW,2013-03-07 02:01:00,
2013-03-06 19:02:00,63.0,24.3,29.59,SW,225,2.7,6.3,23,0.00,,,0.00,WUHU216HW,2013-03-07 02:02:00,
2013-03-06 19:04:00,63.0,24.3,29.59,SW,225,2.7,5.1,23,0.00,,,0.00,WUHU216HW,2013-03-07 02:04:00,
2013-03-06 19:06:00,62.8,25.1,29.59,SW,225,3.1,3.4,24,0.00,,,0.00,WUHU216HW,2013-03-07 02:06:00,
2013-03-06 19:07:00,62.8,25.1,29.60,SW,225,2.2,3.4,24,0.00,,,0.00,WUHU216HW,2013-03-07 02:07:00,
2013-03-06 19:09:00,62.6,24.9,29.60,SSW,203,2.7,3.1,24,0.00,,,0.00,WUHU216HW,2013-03-07 02:09:00,
2013-03-06 19:10:00,62.6,24.9,29.60,SSW,203,3.4,3.4,24,0.00,,,0.00,WUHU216HW,2013-03-07 02:10:00,
2013-03-06 19:11:00,62.5,24.9,29.60,SSW,203,3.4,3.4,24,0.00,,,0.00,WUHU216HW,2013-03-07 02:11:00,
2013-03-06 19:12:00,62.5,24.9,29.60,SSW,203,3.1,3.4,24,0.00,,,0.00,WUHU216HW,2013-03-07 02:12:00,
2013-03-06 19:14:00,62.3,24.7,29.60,South,180,3.1,3.4,24,0.00,,,0.00,WUHU216HW,2013-03-07 02:14:00,
2013-03-06 19:15:00,62.3,24.7,29.60,SSW,203,2.9,3.4,24,0.00,,,0.00,WUHU216HW,2013-03-07 02:15:00,
2013-03-06 19:16:00,62.3,24.7,29.60,SSW,203,2.0,3.4,24,0.00,,,0.00,WUHU216HW,2013-03-07 02:16:00,
2013-03-06 19:17:00,62.3,24.7,29.60,SSW,203,2.2,3.4,24,0.00,,,0.00,WUHU216HW,2013-03-07 02:17:00,
2013-03-06 19:19:00,62.3,24.7,29.60,SW,225,1.8,3.4,24,0.00,,,0.00,WUHU216HW,2013-03-07 02:19:00,
2013-03-06 19:20:00,62.3,24.7,29.60,SW,225,1.8,3.4,24,0.00,,,0.00,WUHU216HW,2013-03-07 02:20:00,
2013-03-06 19:21:00,62.3,24.7,29.60,WSW,248,1.8,3.4,24,0.00,,,0.00,WUHU216HW,2013-03-07 02:21:00,
2013-03-06 19:22:00,62.3,24.7,29.60,SW,225,2.5,3.4,24,0.00,,,0.00,WUHU216HW,2013-03-07 02:22:00,
2013-03-06 19:24:00,62.3,24.7,29.60,WSW,248,2.5,2.9,24,0.00,,,0.00,WUHU216HW,2013-03-07 02:24:00,
2013-03-06 19:25:00,62.3,24.7,29.60,WSW,248,2.2,2.5,24,0.00,,,0.00,WUHU216HW,2013-03-07 02:25:00,
2013-03-06 19:27:00,62.1,24.5,29.60,West,270,1.8,2.5,24,0.00,,,0.00,WUHU216HW,2013-03-07 02:27:00,
2013-03-06 19:28:00,62.1,24.5,29.60,West,270,2.2,2.5,24,0.00,,,0.00,WUHU216HW,2013-03-07 02:28:00,
2013-03-06 19:29:00,62.1,24.5,29.60,West,270,1.3,2.5,24,0.00,,,0.00,WUHU216HW,2013-03-07 02:29:00,
2013-03-06 19:30:00,62.1,24.5,29.60,West,270,1.8,2.5,24,0.00,,,0.00,WUHU216HW,2013-03-07 02:30:00,
2013-03-06 19:32:00,62.1,24.5,29.60,NW,315,1.1,2.5,24,0.00,,,0.00,WUHU216HW,2013-03-07 02:32:00,
2013-03-06 19:33:00,62.1,24.5,29.60,WNW,293,1.3,2.5,24,0.00,,,0.00,WUHU216HW,2013-03-07 02:33:00,
2013-03-06 19:34:00,61.9,24.3,29.60,WNW,293,0.4,2.2,24,0.00,,,0.00,WUHU216HW,2013-03-07 02:34:00,
2013-03-06 19:36:00,61.9,23.4,29.60,WNW,293,1.1,2.2,23,0.00,,,0.00,WUHU216HW,2013-03-07 02:36:00,
2013-03-06 19:37:00,61.9,23.4,29.61,WNW,293,1.3,2.2,23,0.00,,,0.00,WUHU216HW,2013-03-07 02:37:00,
2013-03-06 19:38:00,61.7,23.2,29.60,West,270,1.1,1.8,23,0.00,,,0.00,WUHU216HW,2013-03-07 02:38:00,
2013-03-06 19:39:00,61.7,23.2,29.60,West,270,1.1,1.8,23,0.00,,,0.00,WUHU216HW,2013-03-07 02:39:00,
2013-03-06 19:41:00,61.6,23.0,29.60,West,270,1.3,1.3,23,0.00,,,0.00,WUHU216HW,2013-03-07 02:41:00,
2013-03-06 19:42:00,61.6,23.0,29.60,West,270,1.8,1.8,23,0.00,,,0.00,WUHU216HW,2013-03-07 02:42:00,
2013-03-06 19:43:00,61.6,23.0,29.60,West,270,1.6,1.8,23,0.00,,,0.00,WUHU216HW,2013-03-07 02:43:00,
2013-03-06 19:44:00,61.4,23.0,29.61,WNW,293,1.8,1.8,23,0.00,,,0.00,WUHU216HW,2013-03-07 02:44:00,
2013-03-06 19:46:00,61.4,23.0,29.61,West,270,1.8,1.8,23,0.00,,,0.00,WUHU216HW,2013-03-07 02:46:00,
2013-03-06 19:47:00,61.2,21.8,29.61,West,270,1.6,1.8,22,0.00,,,0.00,WUHU216HW,2013-03-07 02:47:00,
2013-03-06 19:48:00,61.2,21.8,29.60,West,270,2.0,2.0,22,0.00,,,0.00,WUHU216HW,2013-03-07 02:48:00,
2013-03-06 19:49:00,60.8,21.5,29.61,West,270,1.6,2.0,22,0.00,,,0.00,WUHU216HW,2013-03-07 02:49:00,
2013-03-06 19:51:00,60.8,21.5,29.61,WSW,248,2.5,2.5,22,0.00,,,0.00,WUHU216HW,2013-03-07 02:51:00,
2013-03-06 19:53:00,60.7,21.3,29.61,WNW,293,2.2,2.5,22,0.00,,,0.00,WUHU216HW,2013-03-07 02:53:00,
2013-03-06 19:55:00,60.5,21.3,29.61,NW,315,1.3,2.5,22,0.00,,,0.00,WUHU216HW,2013-03-07 02:55:00,
2013-03-06 19:56:00,60.5,21.3,29.61,West,270,2.0,2.5,22,0.00,,,0.00,WUHU216HW,2013-03-07 02:56:00,
2013-03-06 19:58:00,60.5,21.3,29.61,NW,315,1.1,2.5,22,0.00,,,0.00,WUHU216HW,2013-03-07 02:58:00,
2013-03-06 20:00:00,60.5,21.3,29.61,NW,315,1.1,2.5,22,0.00,,,0.00,WUHU216HW,2013-03-07 03:00:00,
2013-03-06 20:01:00,60.3,21.1,29.60,NW,315,1.1,2.2,22,0.00,,,0.00,WUHU216HW,2013-03-07 03:01:00,
2013-03-06 20:03:00,60.1,20.9,29.61,NW,315,0.7,2.2,22,0.00,,,0.00,WUHU216HW,2013-03-07 03:03:00,
2013-03-06 20:05:00,60.1,20.9,29.61,NNW,338,1.1,2.0,22,0.00,,,0.00,WUHU216HW,2013-03-07 03:05:00,
2013-03-06 20:06:00,60.1,20.9,29.61,North,0,1.3,1.3,22,0.00,,,0.00,WUHU216HW,2013-03-07 03:06:00,
2013-03-06 20:08:00,60.1,20.9,29.61,NNW,338,1.1,1.3,22,0.00,,,0.00,WUHU216HW,2013-03-07 03:08:00,
2013-03-06 20:10:00,59.9,20.7,29.61,NNW,338,0.9,1.3,22,0.00,,,0.00,WUHU216HW,2013-03-07 03:10:00,
2013-03-06 20:12:00,59.8,20.6,29.60,NW,315,0.7,1.3,22,0.00,,,0.00,WUHU216HW,2013-03-07 03:12:00,
2013-03-06 20:13:00,59.8,20.6,29.61,NW,315,0.7,1.3,22,0.00,,,0.00,WUHU216HW,2013-03-07 03:13:00,
2013-03-06 20:14:00,59.8,20.6,29.61,NW,315,0.7,1.3,22,0.00,,,0.00,WUHU216HW,2013-03-07 03:14:00,
2013-03-06 20:15:00,59.6,20.4,29.61,North,0,0.0,1.3,22,0.00,,,0.00,WUHU216HW,2013-03-07 03:15:00,
2013-03-06 20:17:00,59.6,20.4,29.61,West,270,0.2,1.1,22,0.00,,,0.00,WUHU216HW,2013-03-07 03:17:00,
2013-03-06 20:18:00,59.4,20.3,29.61,West,270,0.2,1.1,22,0.00,,,0.00,WUHU216HW,2013-03-07 03:18:00,
2013-03-06 20:19:00,59.4,20.3,29.61,West,270,0.2,1.1,22,0.00,,,0.00,WUHU216HW,2013-03-07 03:19:00,
2013-03-06 20:20:00,59.4,20.3,29.61,West,270,0.0,1.1,22,0.00,,,0.00,WUHU216HW,2013-03-07 03:20:00,
2013-03-06 20:22:00,59.4,20.3,29.61,West,270,0.0,1.1,22,0.00,,,0.00,WUHU216HW,2013-03-07 03:22:00,
2013-03-06 20:23:00,59.2,20.1,29.61,West,270,0.0,1.1,22,0.00,,,0.00,WUHU216HW,2013-03-07 03:23:00,
2013-03-06 20:24:00,59.2,20.1,29.61,NNW,338,0.4,1.1,22,0.00,,,0.00,WUHU216HW,2013-03-07 03:24:00,
2013-03-06 20:25:00,59.2,20.1,29.61,NNW,338,2.2,2.2,22,0.00,,,0.00,WUHU216HW,2013-03-07 03:25:00,
2013-03-06 20:27:00,59.0,20.0,29.61,NNW,338,1.6,2.2,22,0.00,,,0.00,WUHU216HW,2013-03-07 03:27:00,
2013-03-06 20:28:00,58.9,19.8,29.61,WNW,293,2.0,2.2,22,0.00,,,0.00,WUHU216HW,2013-03-07 03:28:00,
2013-03-06 20:29:00,58.7,19.6,29.61,West,270,1.6,2.2,22,0.00,,,0.00,WUHU216HW,2013-03-07 03:29:00,
2013-03-06 20:30:00,58.5,19.5,29.61,WNW,293,1.8,2.2,22,0.00,,,0.00,WUHU216HW,2013-03-07 03:30:00,
2013-03-06 20:32:00,58.3,19.4,29.61,WNW,293,2.0,2.2,22,0.00,,,0.00,WUHU216HW,2013-03-07 03:32:00,
2013-03-06 20:33:00,58.3,20.4,29.61,WNW,293,1.6,2.2,23,0.00,,,0.00,WUHU216HW,2013-03-07 03:33:00,
2013-03-06 20:35:00,58.0,20.0,29.61,WNW,293,2.0,2.2,23,0.00,,,0.00,WUHU216HW,2013-03-07 03:35:00,
2013-03-06 20:37:00,58.0,20.0,29.61,WNW,293,1.3,2.2,23,0.00,,,0.00,WUHU216HW,2013-03-07 03:37:00,
2013-03-06 20:39:00,57.8,19.9,29.62,NNW,338,2.5,2.5,23,0.00,,,0.00,WUHU216HW,2013-03-07 03:39:00,
2013-03-06 20:40:00,57.4,19.5,29.61,NW,315,1.6,2.5,23,0.00,,,0.00,WUHU216HW,2013-03-07 03:40:00,
2013-03-06 20:41:00,57.4,19.5,29.61,NW,315,1.6,2.5,23,0.00,,,0.00,WUHU216HW,2013-03-07 03:41:00,
2013-03-06 20:43:00,57.2,19.5,29.61,NW,315,0.7,2.5,23,0.00,,,0.00,WUHU216HW,2013-03-07 03:43:00,
2013-03-06 20:44:00,57.1,19.3,29.62,NNW,338,0.4,2.5,23,0.00,,,0.00,WUHU216HW,2013-03-07 03:44:00,
2013-03-06 20:45:00,56.7,18.0,29.61,NNW,338,1.1,2.5,22,0.00,,,0.00,WUHU216HW,2013-03-07 03:45:00,
2013-03-06 20:46:00,56.7,18.0,29.61,NNW,338,1.1,2.5,22,0.00,,,0.00,WUHU216HW,2013-03-07 03:46:00,
2013-03-06 20:48:00,56.5,18.8,29.61,WNW,293,0.9,2.5,23,0.00,,,0.00,WUHU216HW,2013-03-07 03:48:00,
2013-03-06 20:49:00,56.5,19.8,29.62,NW,315,0.9,2.2,24,0.00,,,0.00,WUHU216HW,2013-03-07 03:49:00,
2013-03-06 20:51:00,56.7,19.9,29.61,West,270,1.1,2.2,24,0.00,,,0.00,WUHU216HW,2013-03-07 03:51:00,
2013-03-06 20:53:00,56.7,19.0,29.62,North,0,0.4,2.2,23,0.00,,,0.00,WUHU216HW,2013-03-07 03:53:00,
2013-03-06 20:54:00,56.7,19.0,29.61,North,0,0.4,2.2,23,0.00,,,0.00,WUHU216HW,2013-03-07 03:54:00,
2013-03-06 20:56:00,56.7,19.0,29.62,NNW,338,0.7,2.2,23,0.00,,,0.00,WUHU216HW,2013-03-07 03:56:00,
2013-03-06 20:58:00,56.5,18.8,29.62,NNW,338,1.1,1.8,23,0.00,,,0.00,WUHU216HW,2013-03-07 03:58:00,
2013-03-06 21:00:00,56.5,18.8,29.62,WNW,293,0.4,1.8,23,0.00,,,0.00,WUHU216HW,2013-03-07 04:00:00,
2013-03-06 21:01:00,56.3,17.7,29.62,NW,315,0.2,1.8,22,0.00,,,0.00,WUHU216HW,2013-03-07 04:01:00,
2013-03-06 21:03:00,56.2,18.6,29.62,NNW,338,1.3,1.8,23,0.00,,,0.00,WUHU216HW,2013-03-07 04:03:00,
2013-03-06 21:05:00,55.8,17.3,29.62,NW,315,2.0,2.0,22,0.00,,,0.00,WUHU216HW,2013-03-07 04:05:00,
2013-03-06 21:06:00,55.8,17.3,29.62,NNW,338,0.9,2.0,22,0.00,,,0.00,WUHU216HW,2013-03-07 04:06:00,
2013-03-06 21:08:00,55.6,17.1,29.62,West,270,1.1,2.0,22,0.00,,,0.00,WUHU216HW,2013-03-07 04:08:00,
2013-03-06 21:10:00,55.4,17.0,29.62,West,270,2.5,2.5,22,0.00,,,0.00,WUHU216HW,2013-03-07 04:10:00,
2013-03-06 21:11:00,55.4,17.9,29.62,NW,315,3.1,3.1,23,0.00,,,0.00,WUHU216HW,2013-03-07 04:11:00,
2013-03-06 21:14:00,55.3,16.8,29.62,WNW,293,2.5,3.1,22,0.00,,,0.00,WUHU216HW,2013-03-07 04:14:00,
2013-03-06 21:15:00,55.1,17.7,29.62,WNW,293,2.0,3.1,23,0.00,,,0.00,WUHU216HW,2013-03-07 04:15:00,
2013-03-06 21:16:00,55.1,16.7,29.62,WNW,293,3.4,3.4,22,0.00,,,0.00,WUHU216HW,2013-03-07 04:16:00,
2013-03-06 21:17:00,55.1,16.7,29.62,WNW,293,3.4,3.4,22,0.00,,,0.00,WUHU216HW,2013-03-07 04:17:00,
2013-03-06 21:19:00,55.1,16.7,29.62,West,270,1.1,3.4,22,0.00,,,0.00,WUHU216HW,2013-03-07 04:19:00,
2013-03-06 21:20:00,54.9,16.6,29.62,NW,315,0.4,3.4,22,0.00,,,0.00,WUHU216HW,2013-03-07 04:20:00,
2013-03-06 21:21:00,54.7,16.4,29.62,WNW,293,1.8,3.4,22,0.00,,,0.00,WUHU216HW,2013-03-07 04:21:00,
2013-03-06 21:22:00,54.7,16.4,29.62,WNW,293,1.8,3.4,22,0.00,,,0.00,WUHU216HW,2013-03-07 04:22:00,
2013-03-06 21:24:00,54.5,16.2,29.62,NNW,338,2.9,3.4,22,0.00,,,0.00,WUHU216HW,2013-03-07 04:24:00,
2013-03-06 21:25:00,54.5,16.2,29.62,NW,315,2.5,3.4,22,0.00,,,0.00,WUHU216HW,2013-03-07 04:25:00,
2013-03-06 21:26:00,54.4,16.0,29.62,WNW,293,2.7,2.9,22,0.00,,,0.00,WUHU216HW,2013-03-07 04:26:00,
2013-03-06 21:27:00,54.4,16.0,29.62,WNW,293,2.7,2.9,22,0.00,,,0.00,WUHU216HW,2013-03-07 04:27:00,
2013-03-06 21:29:00,54.4,16.0,29.62,North,0,2.5,2.9,22,0.00,,,0.00,WUHU216HW,2013-03-07 04:29:00,
2013-03-06 21:30:00,54.2,15.8,29.62,WNW,293,1.8,2.9,22,0.00,,,0.00,WUHU216HW,2013-03-07 04:30:00,
2013-03-06 21:32:00,54.0,15.8,29.62,NW,315,2.7,2.9,22,0.00,,,0.00,WUHU216HW,2013-03-07 04:32:00,
2013-03-06 21:34:00,53.6,15.4,29.62,WNW,293,2.9,4.0,22,0.00,,,0.00,WUHU216HW,2013-03-07 04:34:00,
2013-03-06 21:35:00,53.6,15.4,29.62,West,270,2.2,4.0,22,0.00,,,0.00,WUHU216HW,2013-03-07 04:35:00,
2013-03-06 21:37:00,53.6,15.4,29.62,WNW,293,4.0,4.0,22,0.00,,,0.00,WUHU216HW,2013-03-07 04:37:00,
2013-03-06 21:39:00,53.3,15.1,29.63,WNW,293,3.4,4.0,22,0.00,,,0.00,WUHU216HW,2013-03-07 04:39:00,
2013-03-06 21:40:00,53.3,16.0,29.62,West,270,2.2,4.0,23,0.00,,,0.00,WUHU216HW,2013-03-07 04:40:00,
2013-03-06 21:42:00,53.3,16.0,29.63,West,270,2.0,4.0,23,0.00,,,0.00,WUHU216HW,2013-03-07 04:42:00,
2013-03-06 21:44:00,53.3,16.0,29.63,West,270,2.5,4.0,23,0.00,,,0.00,WUHU216HW,2013-03-07 04:44:00,
2013-03-06 21:46:00,53.1,15.9,29.63,West,270,1.8,4.0,23,0.00,,,0.00,WUHU216HW,2013-03-07 04:46:00,
2013-03-06 21:47:00,53.3,15.1,29.63,SW,225,1.1,4.0,22,0.00,,,0.00,WUHU216HW,2013-03-07 04:47:00,
2013-03-06 21:49:00,53.3,16.0,29.63,South,180,0.4,4.0,23,0.00,,,0.00,WUHU216HW,2013-03-07 04:49:00,
2013-03-06 21:51:00,53.1,15.9,29.63,South,180,0.0,4.0,23,0.00,,,0.00,WUHU216HW,2013-03-07 04:51:00,
2013-03-06 21:52:00,53.1,15.9,29.63,WNW,293,1.1,4.0,23,0.00,,,0.00,WUHU216HW,2013-03-07 04:52:00,
2013-03-06 21:54:00,53.1,14.9,29.63,NW,315,2.7,4.0,22,0.00,,,0.00,WUHU216HW,2013-03-07 04:54:00,
2013-03-06 21:56:00,52.9,14.9,29.63,West,270,2.5,4.0,22,0.00,,,0.00,WUHU216HW,2013-03-07 04:56:00,
2013-03-06 21:57:00,52.9,15.8,29.63,WNW,293,4.0,4.0,23,0.00,,,0.00,WUHU216HW,2013-03-07 04:57:00,
2013-03-06 21:58:00,52.9,15.8,29.63,WNW,293,4.0,4.0,23,0.00,,,0.00,WUHU216HW,2013-03-07 04:58:00,
2013-03-06 22:00:00,52.7,15.6,29.63,WNW,293,2.2,4.0,23,0.00,,,0.00,WUHU216HW,2013-03-07 05:00:00,
2013-03-06 22:05:00,52.4,15.3,29.63,North,0,1.3,4.0,23,0.00,,,0.00,WUHU216HW,2013-03-07 05:05:00,
2013-03-06 22:10:00,52.2,15.2,29.63,WNW,293,0.7,1.8,23,0.00,,,0.00,WUHU216HW,2013-03-07 05:10:00,
2013-03-06 22:15:00,52.2,15.2,29.64,NW,315,0.9,1.8,23,0.00,,,0.00,WUHU216HW,2013-03-07 05:15:00,
2013-03-06 22:20:00,51.8,14.9,29.64,NE,45,0.4,2.5,23,0.00,,,0.00,WUHU216HW,2013-03-07 05:20:00,
2013-03-06 22:25:00,51.7,14.8,29.64,WNW,293,1.6,2.5,23,0.00,,,0.00,WUHU216HW,2013-03-07 05:25:00,
2013-03-06 22:30:00,51.5,14.6,29.64,West,270,1.8,1.8,23,0.00,,,0.00,WUHU216HW,2013-03-07 05:30:00,
2013-03-06 22:31:00,51.5,14.6,29.64,West,270,1.8,1.8,23,0.00,,,0.00,WUHU216HW,2013-03-07 05:31:00,
2013-03-06 22:35:00,51.5,14.6,29.64,NW,315,3.4,3.4,23,0.00,,,0.00,WUHU216HW,2013-03-07 05:35:00,
2013-03-06 22:36:00,51.3,14.4,29.64,West,270,2.5,3.4,23,0.00,,,0.00,WUHU216HW,2013-03-07 05:36:00,
2013-03-06 22:40:00,51.1,14.3,29.64,SE,135,2.5,3.4,23,0.00,,,0.00,WUHU216HW,2013-03-07 05:40:00,
2013-03-06 22:41:00,51.1,14.3,29.64,SE,135,2.5,3.4,23,0.00,,,0.00,WUHU216HW,2013-03-07 05:41:00,
2013-03-06 22:45:00,50.8,14.0,29.64,South,180,1.1,2.5,23,0.00,,,0.00,WUHU216HW,2013-03-07 05:45:00,
2013-03-06 22:46:00,50.8,14.0,29.64,South,180,1.1,2.5,23,0.00,,,0.00,WUHU216HW,2013-03-07 05:46:00,
2013-03-06 22:51:00,50.6,13.9,29.64,WNW,293,0.2,1.6,23,0.00,,,0.00,WUHU216HW,2013-03-07 05:51:00,
2013-03-06 22:56:00,50.6,13.9,29.64,SW,225,1.1,1.8,23,0.00,,,0.00,WUHU216HW,2013-03-07 05:56:00,
2013-03-06 23:01:00,50.4,13.7,29.64,West,270,0.4,1.8,23,0.00,,,0.00,WUHU216HW,2013-03-07 06:01:00,
2013-03-06 23:06:00,50.4,13.7,29.64,South,180,0.0,3.1,23,0.00,,,0.00,WUHU216HW,2013-03-07 06:06:00,
2013-03-06 23:11:00,50.2,13.5,29.64,NW,315,1.1,3.1,23,0.00,,,0.00,WUHU216HW,2013-03-07 06:11:00,
2013-03-06 23:12:00,50.2,13.5,29.64,NW,315,1.1,3.1,23,0.00,,,0.00,WUHU216HW,2013-03-07 06:12:00,
2013-03-06 23:16:00,50.0,13.4,29.64,NNW,338,2.2,4.0,23,0.00,,,0.00,WUHU216HW,2013-03-07 06:16:00,
2013-03-06 23:17:00,50.0,13.4,29.64,NNW,338,2.2,4.0,23,0.00,,,0.00,WUHU216HW,2013-03-07 06:17:00,
2013-03-06 23:21:00,49.9,13.2,29.64,WNW,293,1.1,4.0,23,0.00,,,0.00,WUHU216HW,2013-03-07 06:21:00,
2013-03-06 23:22:00,49.9,14.1,29.64,NW,315,1.6,4.0,24,0.00,,,0.00,WUHU216HW,2013-03-07 06:22:00,
2013-03-06 23:26:00,49.7,14.0,29.64,NNW,338,1.3,2.0,24,0.00,,,0.00,WUHU216HW,2013-03-07 06:26:00,
2013-03-06 23:27:00,49.5,13.9,29.64,WNW,293,2.0,2.0,24,0.00,,,0.00,WUHU216HW,2013-03-07 06:27:00,
2013-03-06 23:31:00,49.3,13.7,29.64,NNW,338,0.9,2.0,24,0.00,,,0.00,WUHU216HW,2013-03-07 06:31:00,
2013-03-06 23:32:00,49.3,13.7,29.64,NNW,338,0.9,2.0,24,0.00,,,0.00,WUHU216HW,2013-03-07 06:32:00,
2013-03-06 23:36:00,49.3,13.7,29.64,NE,45,0.0,2.0,24,0.00,,,0.00,WUHU216HW,2013-03-07 06:36:00,
2013-03-06 23:37:00,49.3,13.7,29.64,NE,45,0.0,1.8,24,0.00,,,0.00,WUHU216HW,2013-03-07 06:37:00,
2013-03-06 23:38:00,49.3,13.7,29.64,NNW,338,0.4,1.8,24,0.00,,,0.00,WUHU216HW,2013-03-07 06:38:00,
2013-03-06 23:41:00,49.1,13.5,29.64,WNW,293,1.8,1.8,24,0.00,,,0.00,WUHU216HW,2013-03-07 06:41:00,
2013-03-06 23:42:00,49.1,13.5,29.64,NNW,338,2.0,2.0,24,0.00,,,0.00,WUHU216HW,2013-03-07 06:42:00,
2013-03-06 23:43:00,49.1,13.5,29.64,WNW,293,1.1,2.0,24,0.00,,,0.00,WUHU216HW,2013-03-07 06:43:00,
2013-03-06 23:46:00,49.1,13.5,29.64,NW,315,2.5,4.0,24,0.00,,,0.00,WUHU216HW,2013-03-07 06:46:00,
2013-03-06 23:47:00,49.1,13.5,29.64,NW,315,2.5,4.0,24,0.00,,,0.00,WUHU216HW,2013-03-07 06:47:00,
2013-03-06 23:48:00,49.1,13.5,29.64,NW,315,0.0,4.0,24,0.00,,,0.00,WUHU216HW,2013-03-07 06:48:00,
2013-03-06 23:51:00,49.1,13.5,29.64,West,270,3.8,4.0,24,0.00,,,0.00,WUHU216HW,2013-03-07 06:51:00,
2013-03-06 23:52:00,49.1,13.5,29.64,West,270,3.8,4.0,24,0.00,,,0.00,WUHU216HW,2013-03-07 06:52:00,
2013-03-06 23:53:00,49.1,13.5,29.64,West,270,2.5,4.0,24,0.00,,,0.00,WUHU216HW,2013-03-07 06:53:00,
2013-03-06 23:57:00,49.1,13.5,29.64,West,270,3.4,4.0,24,0.00,,,0.00,WUHU216HW,2013-03-07 06:57:00,
2013-03-06 23:59:00,49.1,13.5,29.64,WNW,293,3.4,4.0,24,0.00,,,0.00,WUHU216HW,2013-03-07 06:59:00,